Time,TemperatureF,DewpointF,PressureIn,WindDirection,WindDirectionDegrees,WindSpeedMPH,WindSpeedGustMPH,Humidity,HourlyPrecipIn,Conditions,Clouds,dailyrainin,SoftwareType,DateUTC
2013-05-23 00:02:00,67.7,21.3,29.62,NE,40,2.0,2.0,17,0.00,,,0.00,Wunderground v.1.15,2013-05-23 06:02:00,
2013-05-23 00:03:00,67.6,21.2,29.62,NE,41,2.0,2.0,17,0.00,,,0.00,Wunderground v.1.15,2013-05-23 06:03:00,
2013-05-23 00:05:00,67.5,21.0,29.62,NE,40,5.0,5.0,17,0.00,,,0.00,weatherlink.com 1.10,2013-05-23 06:05:00,
2013-05-23 00:06:00,67.4,21.0,29.62,NE,41,3.0,3.0,17,0.00,,,0.00,Wunderground v.1.15,2013-05-23 06:06:00,
2013-05-23 00:07:00,67.4,18.1,29.62,NE,45,3.0,3.0,15,0.00,,,0.00,Wunderground v.1.15,2013-05-23 06:07:00,
2013-05-23 00:09:00,67.4,18.1,29.62,NE,46,2.0,3.0,15,0.00,,,0.00,Wunderground v.1.15,2013-05-23 06:09:00,
2013-05-23 00:12:00,67.7,19.8,29.62,NE,46,1.0,2.0,16,0.00,,,0.00,Wunderground v.1.15,2013-05-23 06:12:00,
2013-05-23 00:13:00,67.8,19.9,29.62,NE,46,0.0,2.0,16,0.00,,,0.00,Wunderground v.1.15,2013-05-23 06:13:00,
2013-05-23 00:14:00,67.8,18.4,29.62,NE,46,0.0,2.0,15,0.00,,,0.00,Wunderground v.1.15,2013-05-23 06:14:00,
2013-05-23 00:16:00,67.8,18.4,29.62,NE,46,0.0,2.0,15,0.00,,,0.00,Wunderground v.1.15,2013-05-23 06:16:00,
2013-05-23 00:19:00,67.8,18.4,29.62,NE,46,2.0,2.0,15,0.00,,,0.00,Wunderground v.1.15,2013-05-23 06:19:00,
2013-05-23 00:21:00,67.7,18.3,29.62,ESE,105,5.0,5.0,15,0.00,,,0.00,Wunderground v.1.15,2013-05-23 06:21:00,
2013-05-23 00:22:00,67.6,18.3,29.62,ESE,105,5.0,5.0,15,0.00,,,0.00,Wunderground v.1.15,2013-05-23 06:22:00,
2013-05-23 00:26:00,67.6,19.8,29.62,ENE,78,2.0,5.0,16,0.00,,,0.00,Wunderground v.1.15,2013-05-23 06:26:00,
2013-05-23 00:27:00,67.6,19.8,29.62,ENE,78,0.0,5.0,16,0.00,,,0.00,Wunderground v.1.15,2013-05-23 06:27:00,
2013-05-23 00:28:00,67.5,19.7,29.63,ENE,78,1.0,5.0,16,0.00,,,0.00,Wunderground v.1.15,2013-05-23 06:28:00,
2013-05-23 00:31:00,67.3,20.9,29.62,ENE,78,2.0,3.0,17,0.00,,,0.00,Wunderground v.1.15,2013-05-23 06:31:00,
2013-05-23 00:32:00,67.2,20.9,29.63,ENE,78,1.0,3.0,17,0.00,,,0.00,Wunderground v.1.15,2013-05-23 06:32:00,
2013-05-23 00:35:00,67.0,19.0,29.62,ENE,78,2.0,3.0,16,0.00,,,0.00,weatherlink.com 1.10,2013-05-23 06:35:00,
2013-05-23 00:36:00,66.9,19.2,29.63,ENE,78,0.0,3.0,16,0.00,,,0.00,Wunderground v.1.15,2013-05-23 06:36:00,
2013-05-23 00:37:00,66.9,20.6,29.63,East,79,0.0,3.0,17,0.00,,,0.00,Wunderground v.1.15,2013-05-23 06:37:00,
2013-05-23 00:38:00,66.8,20.5,29.63,ENE,78,0.0,3.0,17,0.00,,,0.00,Wunderground v.1.15,2013-05-23 06:38:00,
2013-05-23 00:43:00,66.5,22.9,29.63,ENE,78,2.0,2.0,19,0.00,,,0.00,Wunderground v.1.15,2013-05-23 06:43:00,
2013-05-23 00:45:00,66.3,21.5,29.63,ENE,78,2.0,2.0,18,0.00,,,0.00,Wunderground v.1.15,2013-05-23 06:45:00,
2013-05-23 00:46:00,66.3,21.5,29.63,ENE,78,1.0,2.0,18,0.00,,,0.00,Wunderground v.1.15,2013-05-23 06:46:00,
2013-05-23 00:47:00,66.2,21.4,29.63,ENE,78,1.0,2.0,18,0.00,,,0.00,Wunderground v.1.15,2013-05-23 06:47:00,
2013-05-23 00:52:00,65.8,21.1,29.63,ENE,78,1.0,1.0,18,0.00,,,0.00,Wunderground v.1.15,2013-05-23 06:52:00,
2013-05-23 00:53:00,65.7,21.0,29.63,East,79,0.0,3.0,18,0.00,,,0.00,weatherlink.com 1.10,2013-05-23 06:53:00,
2013-05-23 00:54:00,65.6,20.9,29.63,ENE,78,0.0,1.0,18,0.00,,,0.00,Wunderground v.1.15,2013-05-23 06:54:00,
2013-05-23 00:58:00,65.2,21.9,29.63,ENE,78,1.0,1.0,19,0.00,,,0.00,Wunderground v.1.15,2013-05-23 06:58:00,
2013-05-23 01:01:00,65.0,22.9,29.63,ENE,78,2.0,2.0,20,0.00,,,0.00,Wunderground v.1.15,2013-05-23 07:01:00,
2013-05-23 01:03:00,64.7,22.7,29.63,ENE,78,2.0,2.0,20,0.00,,,0.00,Wunderground v.1.15,2013-05-23 07:03:00,
2013-05-23 01:04:00,64.6,22.6,29.63,ENE,78,1.0,2.0,20,0.00,,,0.00,Wunderground v.1.15,2013-05-23 07:04:00,
2013-05-23 01:06:00,64.5,21.3,29.63,East,79,0.0,2.0,19,0.00,,,0.00,Wunderground v.1.15,2013-05-23 07:06:00,
2013-05-23 01:08:00,64.2,21.0,29.63,ENE,78,0.0,2.0,19,0.00,,,0.00,Wunderground v.1.15,2013-05-23 07:08:00,
2013-05-23 01:12:00,63.8,20.7,29.63,ENE,78,2.0,2.0,19,0.00,,,0.00,Wunderground v.1.15,2013-05-23 07:12:00,
2013-05-23 01:13:00,63.7,20.6,29.63,ENE,78,1.0,2.0,19,0.00,,,0.00,Wunderground v.1.15,2013-05-23 07:13:00,
2013-05-23 01:14:00,63.7,20.6,29.63,ENE,78,0.0,2.0,19,0.00,,,0.00,Wunderground v.1.15,2013-05-23 07:14:00,
2013-05-23 01:16:00,63.5,21.7,29.63,ENE,78,1.0,2.0,20,0.00,,,0.00,Wunderground v.1.15,2013-05-23 07:16:00,
2013-05-23 01:18:00,63.3,21.5,29.63,ENE,78,1.0,2.0,20,0.00,,,0.00,Wunderground v.1.15,2013-05-23 07:18:00,
2013-05-23 01:19:00,63.2,22.6,29.63,ENE,78,0.0,2.0,21,0.00,,,0.00,Wunderground v.1.15,2013-05-23 07:19:00,
2013-05-23 01:22:00,62.9,21.0,29.63,ENE,78,0.0,2.0,20,0.00,,,0.00,weatherlink.com 1.10,2013-05-23 07:22:00,
2013-05-23 01:24:00,62.8,21.1,29.63,ENE,78,0.0,2.0,20,0.00,,,0.00,Wunderground v.1.15,2013-05-23 07:24:00,
2013-05-23 01:25:00,62.7,21.0,29.63,ENE,78,1.0,2.0,20,0.00,,,0.00,Wunderground v.1.15,2013-05-23 07:25:00,
2013-05-23 01:26:00,62.6,20.9,29.63,ENE,78,1.0,2.0,20,0.00,,,0.00,Wunderground v.1.15,2013-05-23 07:26:00,
2013-05-23 01:28:00,62.5,20.8,29.63,ENE,78,0.0,2.0,20,0.00,,,0.00,Wunderground v.1.15,2013-05-23 07:28:00,
2013-05-23 01:31:00,62.2,20.6,29.63,ENE,78,0.0,1.0,20,0.00,,,0.00,Wunderground v.1.15,2013-05-23 07:31:00,
2013-05-23 01:32:00,62.1,20.5,29.63,ENE,78,0.0,1.0,20,0.00,,,0.00,Wunderground v.1.15,2013-05-23 07:32:00,
2013-05-23 01:35:00,61.9,20.3,29.64,ENE,78,0.0,1.0,20,0.00,,,0.00,Wunderground v.1.15,2013-05-23 07:35:00,
2013-05-23 01:37:00,61.8,20.3,29.63,ENE,78,0.0,1.0,20,0.00,,,0.00,Wunderground v.1.15,2013-05-23 07:37:00,
2013-05-23 01:38:00,61.8,20.3,29.64,ENE,78,0.0,1.0,20,0.00,,,0.00,Wunderground v.1.15,2013-05-23 07:38:00,
2013-05-23 01:39:00,61.7,20.2,29.64,ENE,78,0.0,1.0,20,0.00,,,0.00,Wunderground v.1.15,2013-05-23 07:39:00,
2013-05-23 01:41:00,61.6,20.1,29.63,ENE,78,2.0,2.0,20,0.00,,,0.00,Wunderground v.1.15,2013-05-23 07:41:00,
2013-05-23 01:43:00,61.5,21.2,29.63,East,79,1.0,2.0,21,0.00,,,0.00,Wunderground v.1.15,2013-05-23 07:43:00,
2013-05-23 01:46:00,61.4,21.1,29.64,ENE,78,0.0,2.0,21,0.00,,,0.00,Wunderground v.1.15,2013-05-23 07:46:00,
2013-05-23 01:48:00,61.4,22.2,29.63,ENE,77,0.0,2.0,22,0.00,,,0.00,Wunderground v.1.15,2013-05-23 07:48:00,
2013-05-23 01:49:00,61.3,22.1,29.63,ENE,78,1.0,2.0,22,0.00,,,0.00,Wunderground v.1.15,2013-05-23 07:49:00,
2013-05-23 01:57:00,61.2,23.1,29.64,ENE,78,2.0,2.0,23,0.00,,,0.00,Wunderground v.1.15,2013-05-23 07:57:00,
2013-05-23 01:59:00,61.1,20.8,29.63,ENE,78,3.0,3.0,21,0.00,,,0.00,Wunderground v.1.15,2013-05-23 07:59:00,
2013-05-23 02:01:00,61.2,20.9,29.63,East,84,2.0,2.0,21,0.00,,,0.00,Wunderground v.1.15,2013-05-23 08:01:00,
2013-05-23 02:02:00,61.2,22.0,29.63,East,84,0.0,3.0,22,0.00,,,0.00,Wunderground v.1.15,2013-05-23 08:02:00,
2013-05-23 02:05:00,61.2,20.9,29.63,East,84,0.0,3.0,21,0.00,,,0.00,Wunderground v.1.15,2013-05-23 08:05:00,
2013-05-23 02:06:00,61.1,20.8,29.63,East,84,0.0,3.0,21,0.00,,,0.00,Wunderground v.1.15,2013-05-23 08:06:00,
2013-05-23 02:07:00,61.1,20.8,29.63,East,84,1.0,3.0,21,0.00,,,0.00,Wunderground v.1.15,2013-05-23 08:07:00,
2013-05-23 02:10:00,61.1,20.8,29.63,East,84,3.0,3.0,21,0.00,,,0.00,Wunderground v.1.15,2013-05-23 08:10:00,
2013-05-23 02:12:00,61.1,21.9,29.63,East,85,1.0,1.0,22,0.00,,,0.00,Wunderground v.1.15,2013-05-23 08:12:00,
2013-05-23 02:17:00,61.0,21.8,29.64,ENE,65,3.0,5.0,22,0.00,,,0.00,Wunderground v.1.15,2013-05-23 08:17:00,
2013-05-23 02:18:00,61.0,21.8,29.64,West,280,5.0,5.0,22,0.00,,,0.00,Wunderground v.1.15,2013-05-23 08:18:00,
2013-05-23 02:22:00,61.1,23.0,29.64,West,266,0.0,4.0,23,0.00,,,0.00,Wunderground v.1.15,2013-05-23 08:22:00,
2013-05-23 02:23:00,61.2,23.1,29.64,West,266,1.0,4.0,23,0.00,,,0.00,Wunderground v.1.15,2013-05-23 08:23:00,
2013-05-23 02:28:00,61.3,23.1,29.64,West,265,0.0,4.0,23,0.00,,,0.00,Wunderground v.1.15,2013-05-23 08:28:00,
2013-05-23 02:29:00,61.3,23.1,29.64,West,266,0.0,4.0,23,0.00,,,0.00,Wunderground v.1.15,2013-05-23 08:29:00,
2013-05-23 02:33:00,61.1,23.0,29.64,West,272,2.0,7.0,23,0.00,,,0.00,Wunderground v.1.15,2013-05-23 08:33:00,
2013-05-23 02:34:00,61.1,24.0,29.64,West,273,3.0,7.0,24,0.00,,,0.00,Wunderground v.1.15,2013-05-23 08:34:00,
2013-05-23 02:38:00,61.1,24.0,29.64,West,275,0.0,7.0,24,0.00,,,0.00,Wunderground v.1.15,2013-05-23 08:38:00,
2013-05-23 02:39:00,61.0,23.9,29.64,West,275,0.0,7.0,24,0.00,,,0.00,Wunderground v.1.15,2013-05-23 08:39:00,
2013-05-23 02:41:00,60.9,23.8,29.65,West,275,3.0,3.0,24,0.00,,,0.00,Wunderground v.1.15,2013-05-23 08:41:00,
2013-05-23 02:43:00,60.7,23.7,29.65,West,275,1.0,5.0,24,0.00,,,0.00,Wunderground v.1.15,2013-05-23 08:43:00,
2013-05-23 02:44:00,60.6,23.6,29.65,West,275,0.0,5.0,24,0.00,,,0.00,Wunderground v.1.15,2013-05-23 08:44:00,
2013-05-23 02:45:00,60.6,23.6,29.65,West,275,0.0,5.0,24,0.00,,,0.00,Wunderground v.1.15,2013-05-23 08:45:00,
2013-05-23 02:46:00,60.5,23.5,29.64,West,275,0.0,5.0,24,0.00,,,0.00,Wunderground v.1.15,2013-05-23 08:46:00,
2013-05-23 02:49:00,60.3,24.3,29.64,West,274,0.0,5.0,25,0.00,,,0.00,Wunderground v.1.15,2013-05-23 08:49:00,
2013-05-23 02:50:00,60.2,24.2,29.64,West,275,0.0,5.0,25,0.00,,,0.00,Wunderground v.1.15,2013-05-23 08:50:00,
2013-05-23 02:52:00,60.0,24.0,29.64,West,275,0.0,1.0,25,0.00,,,0.00,Wunderground v.1.15,2013-05-23 08:52:00,
2013-05-23 02:54:00,59.8,22.9,29.64,West,275,0.0,1.0,24,0.00,,,0.00,Wunderground v.1.15,2013-05-23 08:54:00,
2013-05-23 02:55:00,59.7,23.8,29.64,West,275,0.0,1.0,25,0.00,,,0.00,Wunderground v.1.15,2013-05-23 08:55:00,
2013-05-23 02:58:00,59.5,23.6,29.65,West,275,0.0,1.0,25,0.00,,,0.00,Wunderground v.1.15,2013-05-23 08:58:00,
2013-05-23 02:59:00,59.4,24.5,29.65,West,275,0.0,1.0,26,0.00,,,0.00,Wunderground v.1.15,2013-05-23 08:59:00,
2013-05-23 03:01:00,59.3,23.4,29.65,West,275,0.0,0.0,25,0.00,,,0.00,Wunderground v.1.15,2013-05-23 09:01:00,
2013-05-23 03:03:00,59.0,24.1,29.65,West,275,0.0,1.0,26,0.00,,,0.00,Wunderground v.1.15,2013-05-23 09:03:00,
2013-05-23 03:04:00,58.9,24.0,29.65,West,275,0.0,1.0,26,0.00,,,0.00,Wunderground v.1.15,2013-05-23 09:04:00,
2013-05-23 03:06:00,58.7,23.9,29.65,WNW,294,3.0,3.0,26,0.00,,,0.00,Wunderground v.1.15,2013-05-23 09:06:00,
2013-05-23 03:08:00,58.5,24.6,29.65,North,5,6.0,9.0,27,0.00,,,0.00,Wunderground v.1.15,2013-05-23 09:08:00,
2013-05-23 03:09:00,58.4,24.5,29.65,North,9,1.0,9.0,27,0.00,,,0.00,Wunderground v.1.15,2013-05-23 09:09:00,
2013-05-23 03:11:00,58.2,25.2,29.65,North,5,2.0,3.0,28,0.00,,,0.00,Wunderground v.1.15,2013-05-23 09:11:00,
2013-05-23 03:12:00,58.2,25.2,29.65,North,5,3.0,3.0,28,0.00,,,0.00,Wunderground v.1.15,2013-05-23 09:12:00,
2013-05-23 03:13:00,58.0,25.9,29.65,North,5,2.0,4.0,29,0.00,,,0.00,Wunderground v.1.15,2013-05-23 09:13:00,
2013-05-23 03:15:00,57.9,24.1,29.66,North,5,2.0,4.0,27,0.00,,,0.00,Wunderground v.1.15,2013-05-23 09:15:00,
2013-05-23 03:17:00,57.8,24.0,29.66,North,9,3.0,4.0,27,0.00,,,0.00,Wunderground v.1.15,2013-05-23 09:17:00,
2013-05-23 03:18:00,57.8,24.0,29.66,North,9,3.0,4.0,27,0.00,,,0.00,Wunderground v.1.15,2013-05-23 09:18:00,
2013-05-23 03:22:00,57.6,23.8,29.66,NE,51,0.0,2.0,27,0.00,,,0.00,Wunderground v.1.15,2013-05-23 09:22:00,
2013-05-23 03:23:00,57.5,23.7,29.66,NE,51,0.0,2.0,27,0.00,,,0.00,Wunderground v.1.15,2013-05-23 09:23:00,
2013-05-23 03:27:00,57.4,23.7,29.66,NE,51,2.0,2.0,27,0.00,,,0.00,Wunderground v.1.15,2013-05-23 09:27:00,
2013-05-23 03:28:00,57.4,24.5,29.66,NE,51,2.0,3.0,28,0.00,,,0.00,Wunderground v.1.15,2013-05-23 09:28:00,
2013-05-23 03:29:00,57.4,24.5,29.66,ENE,66,3.0,3.0,28,0.00,,,0.00,Wunderground v.1.15,2013-05-23 09:29:00,
2013-05-23 03:32:00,57.3,24.4,29.66,ENE,68,0.0,2.0,28,0.00,,,0.00,Wunderground v.1.15,2013-05-23 09:32:00,
2013-05-23 03:33:00,57.3,24.4,29.66,ENE,69,1.0,2.0,28,0.00,,,0.00,Wunderground v.1.15,2013-05-23 09:33:00,
2013-05-23 03:35:00,57.3,23.6,29.66,ENE,68,1.0,2.0,27,0.00,,,0.00,Wunderground v.1.15,2013-05-23 09:35:00,
2013-05-23 03:37:00,57.3,24.4,29.66,ENE,69,0.0,2.0,28,0.00,,,0.00,Wunderground v.1.15,2013-05-23 09:37:00,
2013-05-23 03:38:00,57.2,24.3,29.66,ENE,68,0.0,2.0,28,0.00,,,0.00,Wunderground v.1.15,2013-05-23 09:38:00,
2013-05-23 03:39:00,57.2,24.3,29.66,ENE,67,0.0,2.0,28,0.00,,,0.00,Wunderground v.1.15,2013-05-23 09:39:00,
2013-05-23 03:41:00,57.2,23.5,29.66,ENE,67,2.0,2.0,27,0.00,,,0.00,Wunderground v.1.15,2013-05-23 09:41:00,
2013-05-23 03:42:00,57.2,25.2,29.66,ENE,67,0.0,2.0,29,0.00,,,0.00,Wunderground v.1.15,2013-05-23 09:42:00,
2013-05-23 03:44:00,57.2,25.2,29.66,ENE,68,0.0,2.0,29,0.00,,,0.00,Wunderground v.1.15,2013-05-23 09:44:00,
2013-05-23 03:46:00,57.2,25.2,29.67,ENE,68,0.0,2.0,29,0.00,,,0.00,Wunderground v.1.15,2013-05-23 09:46:00,
2013-05-23 03:48:00,57.1,25.1,29.67,ENE,69,0.0,2.0,29,0.00,,,0.00,Wunderground v.1.15,2013-05-23 09:48:00,
2013-05-23 03:49:00,57.0,24.2,29.66,ENE,68,1.0,2.0,28,0.00,,,0.00,Wunderground v.1.15,2013-05-23 09:49:00,
2013-05-23 03:50:00,57.0,24.2,29.66,ENE,69,2.0,2.0,28,0.00,,,0.00,Wunderground v.1.15,2013-05-23 09:50:00,
2013-05-23 03:51:00,57.0,24.2,29.67,ENE,69,2.0,2.0,28,0.00,,,0.00,Wunderground v.1.15,2013-05-23 09:51:00,
2013-05-23 03:53:00,56.9,24.1,29.67,ENE,67,2.0,3.0,28,0.00,,,0.00,Wunderground v.1.15,2013-05-23 09:53:00,
2013-05-23 03:55:00,56.8,24.0,29.67,ENE,69,1.0,3.0,28,0.00,,,0.00,Wunderground v.1.15,2013-05-23 09:55:00,
2013-05-23 03:56:00,56.8,24.0,29.67,ENE,70,3.0,3.0,28,0.00,,,0.00,Wunderground v.1.15,2013-05-23 09:56:00,
2013-05-23 03:58:00,56.7,23.9,29.67,ESE,105,4.0,5.0,28,0.00,,,0.00,Wunderground v.1.15,2013-05-23 09:58:00,
2013-05-23 04:00:00,56.7,23.0,29.67,ESE,105,2.0,4.0,27,0.00,,,0.00,Wunderground v.1.15,2013-05-23 10:00:00,
2013-05-23 04:01:00,56.8,24.0,29.67,ESE,105,2.0,4.0,28,0.00,,,0.00,Wunderground v.1.15,2013-05-23 10:01:00,
2013-05-23 04:04:00,56.8,24.0,29.67,WSW,254,5.0,7.0,28,0.00,,,0.00,Wunderground v.1.15,2013-05-23 10:04:00,
2013-05-23 04:05:00,56.8,24.0,29.68,West,260,0.0,7.0,28,0.00,,,0.00,Wunderground v.1.15,2013-05-23 10:05:00,
2013-05-23 04:07:00,57.0,24.2,29.67,West,260,0.0,7.0,28,0.00,,,0.00,Wunderground v.1.15,2013-05-23 10:07:00,
2013-05-23 04:09:00,57.1,24.3,29.67,West,260,1.0,7.0,28,0.00,,,0.00,Wunderground v.1.15,2013-05-23 10:09:00,
2013-05-23 04:10:00,57.1,24.3,29.67,West,260,1.0,2.0,28,0.00,,,0.00,Wunderground v.1.15,2013-05-23 10:10:00,
2013-05-23 04:11:00,57.1,25.1,29.67,West,260,0.0,2.0,29,0.00,,,0.00,Wunderground v.1.15,2013-05-23 10:11:00,
2013-05-23 04:12:00,57.1,25.1,29.67,West,260,0.0,2.0,29,0.00,,,0.00,Wunderground v.1.15,2013-05-23 10:12:00,
2013-05-23 04:14:00,57.1,25.1,29.67,West,259,0.0,2.0,29,0.00,,,0.00,Wunderground v.1.15,2013-05-23 10:14:00,
2013-05-23 04:16:00,57.0,25.0,29.67,West,260,3.0,3.0,29,0.00,,,0.00,Wunderground v.1.15,2013-05-23 10:16:00,
2013-05-23 04:17:00,56.9,24.9,29.67,West,259,2.0,4.0,29,0.00,,,0.00,Wunderground v.1.15,2013-05-23 10:17:00,
2013-05-23 04:18:00,56.9,24.1,29.67,West,259,0.0,4.0,28,0.00,,,0.00,Wunderground v.1.15,2013-05-23 10:18:00,
2013-05-23 04:20:00,56.8,24.8,29.67,West,261,0.0,4.0,29,0.00,,,0.00,Wunderground v.1.15,2013-05-23 10:20:00,
2013-05-23 04:21:00,56.8,24.8,29.67,West,260,1.0,2.0,29,0.00,,,0.00,Wunderground v.1.15,2013-05-23 10:21:00,
2013-05-23 04:22:00,56.7,24.8,29.67,West,261,0.0,2.0,29,0.00,,,0.00,Wunderground v.1.15,2013-05-23 10:22:00,
2013-05-23 04:24:00,56.7,25.6,29.67,West,263,4.0,4.0,30,0.00,,,0.00,Wunderground v.1.15,2013-05-23 10:24:00,
2013-05-23 04:25:00,56.6,24.7,29.67,West,274,2.0,4.0,29,0.00,,,0.00,Wunderground v.1.15,2013-05-23 10:25:00,
2013-05-23 04:26:00,56.5,24.6,29.68,West,274,0.0,4.0,29,0.00,,,0.00,Wunderground v.1.15,2013-05-23 10:26:00,
2013-05-23 04:27:00,56.5,24.6,29.68,West,275,1.0,4.0,29,0.00,,,0.00,Wunderground v.1.15,2013-05-23 10:27:00,
2013-05-23 04:29:00,56.4,25.3,29.67,West,274,2.0,4.0,30,0.00,,,0.00,Wunderground v.1.15,2013-05-23 10:29:00,
2013-05-23 04:30:00,56.4,26.1,29.67,West,274,1.0,1.0,31,0.00,,,0.00,Wunderground v.1.15,2013-05-23 10:30:00,
2013-05-23 04:32:00,56.3,26.0,29.67,West,274,0.0,1.0,31,0.00,,,0.00,Wunderground v.1.15,2013-05-23 10:32:00,
2013-05-23 04:34:00,56.2,25.1,29.67,West,275,0.0,1.0,30,0.00,,,0.00,Wunderground v.1.15,2013-05-23 10:34:00,
2013-05-23 04:35:00,56.1,25.8,29.68,West,275,0.0,1.0,31,0.00,,,0.00,Wunderground v.1.15,2013-05-23 10:35:00,
2013-05-23 04:37:00,56.0,25.8,29.68,West,275,0.0,1.0,31,0.00,,,0.00,Wunderground v.1.15,2013-05-23 10:37:00,
2013-05-23 04:38:00,55.9,25.7,29.67,West,274,0.0,1.0,31,0.00,,,0.00,Wunderground v.1.15,2013-05-23 10:38:00,
2013-05-23 04:40:00,55.7,25.5,29.68,West,274,0.0,0.0,31,0.00,,,0.00,Wunderground v.1.15,2013-05-23 10:40:00,
2013-05-23 04:41:00,55.7,25.5,29.68,West,274,0.0,0.0,31,0.00,,,0.00,Wunderground v.1.15,2013-05-23 10:41:00,
2013-05-23 04:42:00,55.5,25.3,29.68,West,275,0.0,0.0,31,0.00,,,0.00,Wunderground v.1.15,2013-05-23 10:42:00,
2013-05-23 04:43:00,55.5,25.3,29.67,West,275,0.0,0.0,31,0.00,,,0.00,Wunderground v.1.15,2013-05-23 10:43:00,
2013-05-23 04:45:00,55.3,25.1,29.68,West,275,0.0,0.0,31,0.00,,,0.00,Wunderground v.1.15,2013-05-23 10:45:00,
2013-05-23 04:46:00,55.2,25.8,29.68,West,274,0.0,0.0,32,0.00,,,0.00,Wunderground v.1.15,2013-05-23 10:46:00,
2013-05-23 04:48:00,55.1,25.7,29.68,West,275,1.0,2.0,32,0.00,,,0.00,Wunderground v.1.15,2013-05-23 10:48:00,
2013-05-23 04:50:00,54.9,25.6,29.68,West,275,0.0,0.0,32,0.00,,,0.00,Wunderground v.1.15,2013-05-23 10:50:00,
2013-05-23 04:51:00,54.8,25.5,29.68,West,275,0.0,0.0,32,0.00,,,0.00,Wunderground v.1.15,2013-05-23 10:51:00,
2013-05-23 04:53:00,54.7,25.4,29.68,West,275,0.0,0.0,32,0.00,,,0.00,Wunderground v.1.15,2013-05-23 10:53:00,
2013-05-23 04:54:00,54.6,25.3,29.68,West,275,0.0,0.0,32,0.00,,,0.00,Wunderground v.1.15,2013-05-23 10:54:00,
2013-05-23 04:56:00,54.5,25.2,29.67,West,275,0.0,1.0,32,0.00,,,0.00,Wunderground v.1.15,2013-05-23 10:56:00,
2013-05-23 04:57:00,54.4,25.9,29.68,West,267,3.0,3.0,33,0.00,,,0.00,Wunderground v.1.15,2013-05-23 10:57:00,
2013-05-23 04:59:00,54.4,25.9,29.68,West,267,0.0,3.0,33,0.00,,,0.00,Wunderground v.1.15,2013-05-23 10:59:00,
2013-05-23 05:00:00,54.3,25.8,29.68,West,266,0.0,0.0,33,0.00,,,0.00,Wunderground v.1.15,2013-05-23 11:00:00,
2013-05-23 05:01:00,54.3,25.8,29.68,West,272,6.0,6.0,33,0.00,,,0.00,Wunderground v.1.15,2013-05-23 11:01:00,
2013-05-23 05:03:00,54.2,25.7,29.68,West,272,3.0,6.0,33,0.00,,,0.00,Wunderground v.1.15,2013-05-23 11:03:00,
2013-05-23 05:04:00,54.3,25.8,29.68,West,272,0.0,6.0,33,0.00,,,0.00,Wunderground v.1.15,2013-05-23 11:04:00,
2013-05-23 05:06:00,54.3,25.8,29.68,West,272,0.0,6.0,33,0.00,,,0.00,Wunderground v.1.15,2013-05-23 11:06:00,
2013-05-23 05:07:00,54.3,25.8,29.68,West,273,1.0,6.0,33,0.00,,,0.00,Wunderground v.1.15,2013-05-23 11:07:00,
2013-05-23 05:08:00,54.3,26.5,29.68,West,273,0.0,6.0,34,0.00,,,0.00,Wunderground v.1.15,2013-05-23 11:08:00,
2013-05-23 05:09:00,54.3,26.5,29.68,West,271,1.0,6.0,34,0.00,,,0.00,Wunderground v.1.15,2013-05-23 11:09:00,
2013-05-23 05:11:00,54.3,27.2,29.68,WNW,301,1.0,1.0,35,0.00,,,0.00,Wunderground v.1.15,2013-05-23 11:11:00,
2013-05-23 05:12:00,54.2,27.1,29.68,WNW,302,0.0,1.0,35,0.00,,,0.00,Wunderground v.1.15,2013-05-23 11:12:00,
2013-05-23 05:13:00,54.1,26.3,29.68,WNW,302,0.0,1.0,34,0.00,,,0.00,Wunderground v.1.15,2013-05-23 11:13:00,
2013-05-23 05:15:00,54.1,26.3,29.68,WNW,302,0.0,1.0,34,0.00,,,0.00,Wunderground v.1.15,2013-05-23 11:15:00,
2013-05-23 05:16:00,53.9,26.8,29.68,WNW,301,2.0,3.0,35,0.00,,,0.00,Wunderground v.1.15,2013-05-23 11:16:00,
2013-05-23 05:18:00,53.9,26.1,29.68,WNW,301,5.0,5.0,34,0.00,,,0.00,Wunderground v.1.15,2013-05-23 11:18:00,
2013-05-23 05:19:00,53.8,26.1,29.68,WNW,300,2.0,6.0,34,0.00,,,0.00,Wunderground v.1.15,2013-05-23 11:19:00,
2013-05-23 05:20:00,53.8,26.1,29.68,WNW,301,2.0,2.0,34,0.00,,,0.00,Wunderground v.1.15,2013-05-23 11:20:00,
2013-05-23 05:22:00,53.8,26.8,29.68,WNW,300,0.0,2.0,35,0.00,,,0.00,Wunderground v.1.15,2013-05-23 11:22:00,
2013-05-23 05:23:00,53.8,26.8,29.68,WNW,301,2.0,2.0,35,0.00,,,0.00,Wunderground v.1.15,2013-05-23 11:23:00,
2013-05-23 05:24:00,53.8,27.4,29.68,WNW,300,2.0,2.0,36,0.00,,,0.00,Wunderground v.1.15,2013-05-23 11:24:00,
2013-05-23 05:26:00,53.8,27.4,29.68,WNW,301,0.0,2.0,36,0.00,,,0.00,Wunderground v.1.15,2013-05-23 11:26:00,
2013-05-23 05:27:00,53.8,27.4,29.68,WNW,301,0.0,2.0,36,0.00,,,0.00,Wunderground v.1.15,2013-05-23 11:27:00,
2013-05-23 05:28:00,53.8,27.4,29.68,WNW,301,1.0,2.0,36,0.00,,,0.00,Wunderground v.1.15,2013-05-23 11:28:00,
2013-05-23 05:29:00,53.8,27.4,29.68,WNW,300,2.0,3.0,36,0.00,,,0.00,Wunderground v.1.15,2013-05-23 11:29:00,
2013-05-23 05:31:00,53.7,27.4,29.68,WNW,301,0.0,2.0,36,0.00,,,0.00,Wunderground v.1.15,2013-05-23 11:31:00,
2013-05-23 05:32:00,53.7,26.7,29.68,WNW,300,0.0,2.0,35,0.00,,,0.00,Wunderground v.1.15,2013-05-23 11:32:00,
2013-05-23 05:33:00,53.6,27.3,29.69,WNW,300,0.0,2.0,36,0.00,,,0.00,Wunderground v.1.15,2013-05-23 11:33:00,
2013-05-23 05:34:00,53.6,27.3,29.69,WNW,300,0.0,2.0,36,0.00,,,0.00,Wunderground v.1.15,2013-05-23 11:34:00,
2013-05-23 05:35:00,53.5,27.2,29.68,WNW,300,0.0,2.0,36,0.00,,,0.00,Wunderground v.1.15,2013-05-23 11:35:00,
2013-05-23 05:36:00,53.4,27.1,29.69,WNW,301,0.0,2.0,36,0.00,,,0.00,Wunderground v.1.15,2013-05-23 11:36:00,
2013-05-23 05:38:00,53.4,27.1,29.69,WNW,301,0.0,2.0,36,0.00,,,0.00,Wunderground v.1.15,2013-05-23 11:38:00,
2013-05-23 05:39:00,53.3,27.0,29.69,WNW,301,0.0,2.0,36,0.00,,,0.00,Wunderground v.1.15,2013-05-23 11:39:00,
2013-05-23 05:40:00,53.3,27.0,29.69,WNW,301,0.0,0.0,36,0.00,,,0.00,Wunderground v.1.15,2013-05-23 11:40:00,
2013-05-23 05:42:00,53.2,27.6,29.69,WNW,301,0.0,0.0,37,0.00,,,0.00,Wunderground v.1.15,2013-05-23 11:42:00,
2013-05-23 05:44:00,53.1,27.5,29.69,WNW,301,0.0,0.0,37,0.00,,,0.00,Wunderground v.1.15,2013-05-23 11:44:00,
2013-05-23 05:46:00,53.0,27.4,29.70,WNW,300,1.0,3.0,37,0.00,,,0.00,Wunderground v.1.15,2013-05-23 11:46:00,
2013-05-23 05:47:00,52.9,27.3,29.69,WNW,300,0.0,3.0,37,0.00,,,0.00,Wunderground v.1.15,2013-05-23 11:47:00,
2013-05-23 05:49:00,52.8,26.6,29.69,WNW,301,0.0,3.0,36,0.00,,,0.00,Wunderground v.1.15,2013-05-23 11:49:00,
2013-05-23 05:50:00,52.8,26.6,29.69,WNW,300,0.0,0.0,36,0.00,,,0.00,Wunderground v.1.15,2013-05-23 11:50:00,
2013-05-23 05:51:00,52.8,27.2,29.70,WNW,300,0.0,0.0,37,0.00,,,0.00,Wunderground v.1.15,2013-05-23 11:51:00,
2013-05-23 05:52:00,52.8,27.2,29.69,WNW,301,0.0,0.0,37,0.00,,,0.00,Wunderground v.1.15,2013-05-23 11:52:00,
2013-05-23 05:54:00,52.7,27.8,29.70,WNW,302,0.0,0.0,38,0.00,,,0.00,Wunderground v.1.15,2013-05-23 11:54:00,
2013-05-23 05:55:00,52.6,27.7,29.70,WNW,300,0.0,0.0,38,0.00,,,0.00,Wunderground v.1.15,2013-05-23 11:55:00,
2013-05-23 05:56:00,52.6,27.0,29.70,WNW,300,0.0,0.0,37,0.00,,,0.00,Wunderground v.1.15,2013-05-23 11:56:00,
2013-05-23 05:57:00,52.6,27.0,29.70,WNW,300,0.0,0.0,37,0.00,,,0.00,Wunderground v.1.15,2013-05-23 11:57:00,
2013-05-23 05:58:00,52.5,26.9,29.70,WNW,301,0.0,0.0,37,0.00,,,0.00,Wunderground v.1.15,2013-05-23 11:58:00,
2013-05-23 06:00:00,52.4,26.9,29.70,WNW,300,0.0,0.0,37,0.00,,,0.00,Wunderground v.1.15,2013-05-23 12:00:00,
2013-05-23 06:02:00,52.3,26.8,29.69,WNW,301,0.0,0.0,37,0.00,,,0.00,Wunderground v.1.15,2013-05-23 12:02:00,
2013-05-23 06:03:00,52.3,26.8,29.69,WNW,301,1.0,1.0,37,0.00,,,0.00,Wunderground v.1.15,2013-05-23 12:03:00,
2013-05-23 06:05:00,52.1,26.6,29.69,WNW,300,0.0,1.0,37,0.00,,,0.00,Wunderground v.1.15,2013-05-23 12:05:00,
2013-05-23 06:06:00,52.1,26.6,29.69,WNW,300,0.0,1.0,37,0.00,,,0.00,Wunderground v.1.15,2013-05-23 12:06:00,
2013-05-23 06:07:00,52.1,27.2,29.69,WNW,300,1.0,1.0,38,0.00,,,0.00,Wunderground v.1.15,2013-05-23 12:07:00,
2013-05-23 06:09:00,52.0,25.8,29.69,WNW,301,1.0,2.0,36,0.00,,,0.00,Wunderground v.1.15,2013-05-23 12:09:00,
2013-05-23 06:11:00,51.9,25.8,29.70,NNW,338,2.0,2.0,36,0.00,,,0.00,Wunderground v.1.15,2013-05-23 12:11:00,
2013-05-23 06:12:00,51.8,25.7,29.70,NNW,345,1.0,2.0,36,0.00,,,0.00,Wunderground v.1.15,2013-05-23 12:12:00,
2013-05-23 06:13:00,51.8,25.7,29.70,NNW,345,1.0,2.0,36,0.00,,,0.00,Wunderground v.1.15,2013-05-23 12:13:00,
2013-05-23 06:14:00,51.8,25.7,29.70,NNE,26,2.0,3.0,36,0.00,,,0.00,Wunderground v.1.15,2013-05-23 12:14:00,
2013-05-23 06:16:00,51.8,25.7,29.70,ENE,63,2.0,3.0,36,0.00,,,0.00,Wunderground v.1.15,2013-05-23 12:16:00,
2013-05-23 06:17:00,51.8,25.7,29.70,ENE,62,0.0,3.0,36,0.00,,,0.00,Wunderground v.1.15,2013-05-23 12:17:00,
2013-05-23 06:18:00,51.8,25.7,29.70,ENE,63,0.0,3.0,36,0.00,,,0.00,Wunderground v.1.15,2013-05-23 12:18:00,
2013-05-23 06:19:00,51.8,25.7,29.70,ENE,63,2.0,3.0,36,0.00,,,0.00,Wunderground v.1.15,2013-05-23 12:19:00,
2013-05-23 06:21:00,51.8,25.7,29.70,ENE,63,0.0,1.0,36,0.00,,,0.00,Wunderground v.1.15,2013-05-23 12:21:00,
2013-05-23 06:23:00,51.8,25.7,29.70,ENE,63,1.0,2.0,36,0.00,,,0.00,Wunderground v.1.15,2013-05-23 12:23:00,
2013-05-23 06:24:00,51.9,25.8,29.71,ENE,62,1.0,2.0,36,0.00,,,0.00,Wunderground v.1.15,2013-05-23 12:24:00,
2013-05-23 06:26:00,52.0,25.8,29.70,ENE,61,2.0,2.0,36,0.00,,,0.00,Wunderground v.1.15,2013-05-23 12:26:00,
2013-05-23 06:27:00,52.1,25.9,29.70,ENE,62,2.0,2.0,36,0.00,,,0.00,Wunderground v.1.15,2013-05-23 12:27:00,
2013-05-23 06:28:00,52.2,26.0,29.70,ENE,62,1.0,2.0,36,0.00,,,0.00,Wunderground v.1.15,2013-05-23 12:28:00,
2013-05-23 06:29:00,52.3,26.8,29.71,ENE,61,3.0,3.0,37,0.00,,,0.00,Wunderground v.1.15,2013-05-23 12:29:00,
2013-05-23 06:31:00,52.3,26.8,29.71,ENE,61,2.0,4.0,37,0.00,,,0.00,Wunderground v.1.15,2013-05-23 12:31:00,
2013-05-23 06:32:00,52.3,26.8,29.71,ENE,61,1.0,4.0,37,0.00,,,0.00,Wunderground v.1.15,2013-05-23 12:32:00,
2013-05-23 06:33:00,52.4,26.9,29.71,ENE,61,0.0,4.0,37,0.00,,,0.00,Wunderground v.1.15,2013-05-23 12:33:00,
2013-05-23 06:34:00,52.4,26.9,29.71,ENE,60,0.0,4.0,37,0.00,,,0.00,Wunderground v.1.15,2013-05-23 12:34:00,
2013-05-23 06:35:00,52.4,26.9,29.71,ENE,61,0.0,4.0,37,0.00,,,0.00,Wunderground v.1.15,2013-05-23 12:35:00,
2013-05-23 06:36:00,52.5,26.9,29.71,ENE,61,0.0,4.0,37,0.00,,,0.00,Wunderground v.1.15,2013-05-23 12:36:00,
2013-05-23 06:37:00,52.6,27.0,29.71,ENE,61,0.0,4.0,37,0.00,,,0.00,Wunderground v.1.15,2013-05-23 12:37:00,
2013-05-23 06:38:00,52.6,27.0,29.71,ENE,61,0.0,4.0,37,0.00,,,0.00,Wunderground v.1.15,2013-05-23 12:38:00,
2013-05-23 06:40:00,52.6,27.7,29.71,ENE,61,0.0,1.0,38,0.00,,,0.00,Wunderground v.1.15,2013-05-23 12:40:00,
2013-05-23 06:41:00,52.7,27.8,29.71,ENE,61,0.0,1.0,38,0.00,,,0.00,Wunderground v.1.15,2013-05-23 12:41:00,
2013-05-23 06:43:00,52.7,28.4,29.71,ENE,60,2.0,2.0,39,0.00,,,0.00,Wunderground v.1.15,2013-05-23 12:43:00,
2013-05-23 06:45:00,52.8,27.9,29.71,ENE,61,1.0,2.0,38,0.00,,,0.00,Wunderground v.1.15,2013-05-23 12:45:00,
2013-05-23 06:47:00,52.9,28.0,29.71,ENE,60,4.0,4.0,38,0.00,,,0.00,Wunderground v.1.15,2013-05-23 12:47:00,
2013-05-23 06:48:00,53.0,27.4,29.71,ENE,61,4.0,4.0,37,0.00,,,0.00,Wunderground v.1.15,2013-05-23 12:48:00,
2013-05-23 06:49:00,53.0,27.4,29.71,ENE,59,3.0,5.0,37,0.00,,,0.00,Wunderground v.1.15,2013-05-23 12:49:00,
2013-05-23 06:50:00,53.2,28.2,29.71,ENE,60,1.0,3.0,38,0.00,,,0.00,Wunderground v.1.15,2013-05-23 12:50:00,
2013-05-23 06:52:00,53.5,27.8,29.71,ENE,60,3.0,3.0,37,0.00,,,0.00,Wunderground v.1.15,2013-05-23 12:52:00,
2013-05-23 06:53:00,53.7,28.0,29.71,ENE,61,2.0,3.0,37,0.00,,,0.00,Wunderground v.1.15,2013-05-23 12:53:00,
2013-05-23 06:54:00,53.8,28.1,29.71,ENE,61,0.0,3.0,37,0.00,,,0.00,Wunderground v.1.15,2013-05-23 12:54:00,
2013-05-23 06:56:00,54.1,29.0,29.72,ENE,61,0.0,3.0,38,0.00,,,0.00,Wunderground v.1.15,2013-05-23 12:56:00,
2013-05-23 06:58:00,54.4,29.3,29.71,ENE,60,0.0,3.0,38,0.00,,,0.00,Wunderground v.1.15,2013-05-23 12:58:00,
2013-05-23 06:59:00,54.6,29.5,29.71,ENE,60,0.0,3.0,38,0.00,,,0.00,Wunderground v.1.15,2013-05-23 12:59:00,
2013-05-23 07:01:00,55.0,29.8,29.71,ENE,61,0.0,1.0,38,0.00,,,0.00,Wunderground v.1.15,2013-05-23 13:01:00,
2013-05-23 07:03:00,55.5,29.6,29.71,ENE,61,1.0,2.0,37,0.00,,,0.00,Wunderground v.1.15,2013-05-23 13:03:00,
2013-05-23 07:04:00,55.7,29.8,29.71,ENE,60,0.0,2.0,37,0.00,,,0.00,Wunderground v.1.15,2013-05-23 13:04:00,
2013-05-23 07:06:00,56.4,29.7,29.71,ENE,60,5.0,5.0,36,0.00,,,0.00,Wunderground v.1.15,2013-05-23 13:06:00,
2013-05-23 07:07:00,56.5,29.1,29.71,ENE,61,4.0,5.0,35,0.00,,,0.00,Wunderground v.1.15,2013-05-23 13:07:00,
2013-05-23 07:08:00,56.8,29.4,29.71,NE,39,3.0,6.0,35,0.00,,,0.00,Wunderground v.1.15,2013-05-23 13:08:00,
2013-05-23 07:09:00,57.0,28.9,29.71,NE,39,4.0,6.0,34,0.00,,,0.00,Wunderground v.1.15,2013-05-23 13:09:00,
2013-05-23 07:12:00,58.0,28.3,29.71,NE,40,1.0,4.0,32,0.00,,,0.00,Wunderground v.1.15,2013-05-23 13:12:00,
2013-05-23 07:13:00,58.1,28.4,29.71,NE,40,1.0,4.0,32,0.00,,,0.00,Wunderground v.1.15,2013-05-23 13:13:00,
2013-05-23 07:14:00,58.3,30.0,29.71,NE,39,1.0,4.0,34,0.00,,,0.00,Wunderground v.1.15,2013-05-23 13:14:00,
2013-05-23 07:17:00,59.0,29.2,29.71,NE,39,4.0,4.0,32,0.00,,,0.00,Wunderground v.1.15,2013-05-23 13:17:00,
2013-05-23 07:18:00,59.0,29.2,29.71,NE,39,3.0,4.0,32,0.00,,,0.00,Wunderground v.1.15,2013-05-23 13:18:00,
2013-05-23 07:19:00,59.1,28.5,29.71,NE,39,3.0,4.0,31,0.00,,,0.00,Wunderground v.1.15,2013-05-23 13:19:00,
2013-05-23 07:20:00,59.3,27.0,29.71,NE,39,4.0,4.0,29,0.00,,,0.00,Wunderground v.1.15,2013-05-23 13:20:00,
2013-05-23 07:23:00,59.7,26.5,29.71,North,360,4.0,5.0,28,0.00,,,0.00,Wunderground v.1.15,2013-05-23 13:23:00,
2013-05-23 07:24:00,59.9,25.8,29.71,North,360,5.0,6.0,27,0.00,,,0.00,Wunderground v.1.15,2013-05-23 13:24:00,
2013-05-23 07:25:00,60.1,26.0,29.71,North,360,7.0,7.0,27,0.00,,,0.00,Wunderground v.1.15,2013-05-23 13:25:00,
2013-05-23 07:28:00,60.4,25.3,29.71,North,360,1.0,7.0,26,0.00,,,0.00,Wunderground v.1.15,2013-05-23 13:28:00,
2013-05-23 07:29:00,60.5,26.3,29.71,North,360,4.0,7.0,27,0.00,,,0.00,Wunderground v.1.15,2013-05-23 13:29:00,
2013-05-23 07:30:00,60.6,25.5,29.71,North,360,2.0,5.0,26,0.00,,,0.00,Wunderground v.1.15,2013-05-23 13:30:00,
2013-05-23 07:34:00,60.8,25.7,29.71,North,355,2.0,6.0,26,0.00,,,0.00,Wunderground v.1.15,2013-05-23 13:34:00,
2013-05-23 07:36:00,61.0,24.9,29.72,North,351,5.0,6.0,25,0.00,,,0.00,Wunderground v.1.15,2013-05-23 13:36:00,
2013-05-23 07:39:00,61.2,24.1,29.71,North,355,4.0,8.0,24,0.00,,,0.00,Wunderground v.1.15,2013-05-23 13:39:00,
2013-05-23 07:40:00,61.3,24.2,29.71,North,355,3.0,4.0,24,0.00,,,0.00,Wunderground v.1.15,2013-05-23 13:40:00,
2013-05-23 07:41:00,61.5,24.3,29.72,North,355,1.0,4.0,24,0.00,,,0.00,Wunderground v.1.15,2013-05-23 13:41:00,
2013-05-23 07:42:00,61.5,24.3,29.72,North,355,1.0,4.0,24,0.00,,,0.00,Wunderground v.1.15,2013-05-23 13:42:00,
2013-05-23 07:44:00,61.9,24.7,29.72,North,355,3.0,4.0,24,0.00,,,0.00,Wunderground v.1.15,2013-05-23 13:44:00,
2013-05-23 07:45:00,62.0,24.8,29.72,North,355,4.0,4.0,24,0.00,,,0.00,Wunderground v.1.15,2013-05-23 13:45:00,
2013-05-23 07:47:00,62.2,23.9,29.72,North,355,5.0,7.0,23,0.00,,,0.00,Wunderground v.1.15,2013-05-23 13:47:00,
2013-05-23 07:49:00,62.6,24.2,29.72,North,360,3.0,7.0,23,0.00,,,0.00,Wunderground v.1.15,2013-05-23 13:49:00,
2013-05-23 07:50:00,62.7,24.3,29.72,North,360,5.0,5.0,23,0.00,,,0.00,Wunderground v.1.15,2013-05-23 13:50:00,
2013-05-23 07:52:00,62.9,24.5,29.72,North,360,0.0,5.0,23,0.00,,,0.00,Wunderground v.1.15,2013-05-23 13:52:00,
2013-05-23 07:54:00,63.4,24.9,29.72,North,360,4.0,5.0,23,0.00,,,0.00,Wunderground v.1.15,2013-05-23 13:54:00,
2013-05-23 07:55:00,63.6,25.1,29.71,North,360,2.0,5.0,23,0.00,,,0.00,Wunderground v.1.15,2013-05-23 13:55:00,
2013-05-23 07:57:00,63.8,24.2,29.72,North,360,2.0,5.0,22,0.00,,,0.00,Wunderground v.1.15,2013-05-23 13:57:00,
2013-05-23 07:59:00,64.1,24.4,29.72,North,360,3.0,5.0,22,0.00,,,0.00,Wunderground v.1.15,2013-05-23 13:59:00,
2013-05-23 08:01:00,64.2,24.5,29.72,North,360,4.0,5.0,22,0.00,,,0.00,Wunderground v.1.15,2013-05-23 14:01:00,
2013-05-23 08:02:00,64.3,23.5,29.72,North,360,5.0,5.0,21,0.00,,,0.00,Wunderground v.1.15,2013-05-23 14:02:00,
2013-05-23 08:03:00,64.3,23.5,29.72,North,360,3.0,6.0,21,0.00,,,0.00,Wunderground v.1.15,2013-05-23 14:03:00,
2013-05-23 08:05:00,64.4,23.6,29.72,North,360,5.0,6.0,21,0.00,,,0.00,Wunderground v.1.15,2013-05-23 14:05:00,
2013-05-23 08:06:00,64.5,23.7,29.72,North,9,4.0,6.0,21,0.00,,,0.00,Wunderground v.1.15,2013-05-23 14:06:00,
2013-05-23 08:08:00,64.6,24.9,29.72,North,5,3.0,6.0,22,0.00,,,0.00,Wunderground v.1.15,2013-05-23 14:08:00,
2013-05-23 08:09:00,64.8,23.9,29.72,NNW,341,1.0,7.0,21,0.00,,,0.00,Wunderground v.1.15,2013-05-23 14:09:00,
2013-05-23 08:11:00,65.0,25.2,29.72,North,355,5.0,5.0,22,0.00,,,0.00,Wunderground v.1.15,2013-05-23 14:11:00,
2013-05-23 08:13:00,65.3,23.2,29.73,North,349,6.0,8.0,20,0.00,,,0.00,Wunderground v.1.15,2013-05-23 14:13:00,
2013-05-23 08:14:00,65.4,23.2,29.73,NNW,348,4.0,8.0,20,0.00,,,0.00,Wunderground v.1.15,2013-05-23 14:14:00,
2013-05-23 08:16:00,65.5,23.3,29.73,NNW,327,4.0,8.0,20,0.00,,,0.00,Wunderground v.1.15,2013-05-23 14:16:00,
2013-05-23 08:17:00,65.7,23.5,29.74,NNW,341,7.0,11.0,20,0.00,,,0.00,Wunderground v.1.15,2013-05-23 14:17:00,
2013-05-23 08:18:00,65.8,23.6,29.74,North,355,7.0,11.0,20,0.00,,,0.00,Wunderground v.1.15,2013-05-23 14:18:00,
2013-05-23 08:19:00,65.8,23.6,29.74,North,355,4.0,11.0,20,0.00,,,0.00,Wunderground v.1.15,2013-05-23 14:19:00,
2013-05-23 08:21:00,65.8,23.6,29.74,North,355,3.0,5.0,20,0.00,,,0.00,Wunderground v.1.15,2013-05-23 14:21:00,
2013-05-23 08:22:00,65.8,24.7,29.74,North,355,2.0,5.0,21,0.00,,,0.00,Wunderground v.1.15,2013-05-23 14:22:00,
2013-05-23 08:24:00,65.9,25.9,29.74,North,355,4.0,5.0,22,0.00,,,0.00,Wunderground v.1.15,2013-05-23 14:24:00,
2013-05-23 08:26:00,66.1,26.1,29.73,North,355,2.0,5.0,22,0.00,,,0.00,Wunderground v.1.15,2013-05-23 14:26:00,
2013-05-23 08:27:00,66.3,26.3,29.74,North,355,0.0,5.0,22,0.00,,,0.00,Wunderground v.1.15,2013-05-23 14:27:00,
2013-05-23 08:29:00,66.6,24.2,29.74,North,351,2.0,5.0,20,0.00,,,0.00,Wunderground v.1.15,2013-05-23 14:29:00,
2013-05-23 08:30:00,66.6,24.2,29.74,North,350,1.0,5.0,20,0.00,,,0.00,Wunderground v.1.15,2013-05-23 14:30:00,
2013-05-23 08:32:00,66.9,25.7,29.74,North,351,4.0,5.0,21,0.00,,,0.00,Wunderground v.1.15,2013-05-23 14:32:00,
2013-05-23 08:34:00,67.2,24.7,29.74,North,355,1.0,6.0,20,0.00,,,0.00,Wunderground v.1.15,2013-05-23 14:34:00,
2013-05-23 08:35:00,67.3,24.8,29.74,North,360,0.0,6.0,20,0.00,,,0.00,Wunderground v.1.15,2013-05-23 14:35:00,
2013-05-23 08:37:00,67.6,25.1,29.74,North,350,7.0,7.0,20,0.00,,,0.00,Wunderground v.1.15,2013-05-23 14:37:00,
2013-05-23 08:39:00,67.9,24.1,29.74,North,350,4.0,7.0,19,0.00,,,0.00,Wunderground v.1.15,2013-05-23 14:39:00,
2013-05-23 08:41:00,68.1,23.0,29.74,NNW,342,5.0,7.0,18,0.00,,,0.00,Wunderground v.1.15,2013-05-23 14:41:00,
2013-05-23 08:42:00,68.1,23.0,29.74,NNW,344,4.0,7.0,18,0.00,,,0.00,Wunderground v.1.15,2013-05-23 14:42:00,
2013-05-23 08:43:00,68.1,23.0,29.74,NNW,345,3.0,7.0,18,0.00,,,0.00,Wunderground v.1.15,2013-05-23 14:43:00,
2013-05-23 08:44:00,68.3,23.1,29.74,NNW,347,6.0,8.0,18,0.00,,,0.00,Wunderground v.1.15,2013-05-23 14:44:00,
2013-05-23 08:47:00,68.5,24.6,29.74,NNW,348,3.0,8.0,19,0.00,,,0.00,Wunderground v.1.15,2013-05-23 14:47:00,
2013-05-23 08:48:00,68.6,23.4,29.74,NE,41,3.0,8.0,18,0.00,,,0.00,Wunderground v.1.15,2013-05-23 14:48:00,
2013-05-23 08:50:00,68.7,23.4,29.74,NNE,33,5.0,8.0,18,0.00,,,0.00,Wunderground v.1.15,2013-05-23 14:50:00,
2013-05-23 08:52:00,68.9,23.6,29.74,North,355,5.0,7.0,18,0.00,,,0.00,Wunderground v.1.15,2013-05-23 14:52:00,
2013-05-23 08:53:00,69.0,23.7,29.74,North,355,4.0,7.0,18,0.00,,,0.00,Wunderground v.1.15,2013-05-23 14:53:00,
2013-05-23 08:54:00,69.1,23.8,29.74,North,355,3.0,7.0,18,0.00,,,0.00,Wunderground v.1.15,2013-05-23 14:54:00,
2013-05-23 08:55:00,69.2,23.9,29.74,North,351,4.0,7.0,18,0.00,,,0.00,Wunderground v.1.15,2013-05-23 14:55:00,
2013-05-23 08:57:00,69.5,24.1,29.74,NE,38,1.0,7.0,18,0.00,,,0.00,Wunderground v.1.15,2013-05-23 14:57:00,
2013-05-23 08:58:00,69.6,24.2,29.74,NE,37,1.0,7.0,18,0.00,,,0.00,Wunderground v.1.15,2013-05-23 14:58:00,
2013-05-23 08:59:00,69.8,24.3,29.74,NE,34,5.0,7.0,18,0.00,,,0.00,Wunderground v.1.15,2013-05-23 14:59:00,
2013-05-23 09:00:00,69.9,24.4,29.74,NNE,26,5.0,5.0,18,0.00,,,0.00,Wunderground v.1.15,2013-05-23 15:00:00,
2013-05-23 09:03:00,70.6,23.6,29.74,North,9,5.0,7.0,17,0.00,,,0.00,Wunderground v.1.15,2013-05-23 15:03:00,
2013-05-23 09:04:00,70.9,23.9,29.74,North,5,5.0,7.0,17,0.00,,,0.00,Wunderground v.1.15,2013-05-23 15:04:00,
2013-05-23 09:05:00,70.9,23.9,29.74,North,9,4.0,7.0,17,0.00,,,0.00,Wunderground v.1.15,2013-05-23 15:05:00,
2013-05-23 09:08:00,71.2,22.7,29.74,NNW,343,5.0,7.0,16,0.00,,,0.00,Wunderground v.1.15,2013-05-23 15:08:00,
2013-05-23 09:10:00,71.4,22.8,29.74,NNW,344,3.0,4.0,16,0.00,,,0.00,Wunderground v.1.15,2013-05-23 15:10:00,
2013-05-23 09:11:00,71.6,23.0,29.74,NNW,343,3.0,4.0,16,0.00,,,0.00,Wunderground v.1.15,2013-05-23 15:11:00,
2013-05-23 09:13:00,71.8,23.2,29.74,NNW,344,2.0,4.0,16,0.00,,,0.00,Wunderground v.1.15,2013-05-23 15:13:00,
2013-05-23 09:14:00,71.9,21.7,29.74,NNW,343,2.0,4.0,15,0.00,,,0.00,Wunderground v.1.15,2013-05-23 15:14:00,
2013-05-23 09:16:00,72.2,21.9,29.74,NNW,344,3.0,5.0,15,0.00,,,0.00,Wunderground v.1.15,2013-05-23 15:16:00,
2013-05-23 09:17:00,72.4,22.1,29.74,NNW,344,3.0,5.0,15,0.00,,,0.00,Wunderground v.1.15,2013-05-23 15:17:00,
2013-05-23 09:18:00,72.5,22.2,29.74,NNW,344,5.0,5.0,15,0.00,,,0.00,Wunderground v.1.15,2013-05-23 15:18:00,
2013-05-23 09:19:00,72.6,22.3,29.74,NNW,344,4.0,5.0,15,0.00,,,0.00,Wunderground v.1.15,2013-05-23 15:19:00,
2013-05-23 09:20:00,72.8,22.4,29.74,NNW,344,2.0,3.0,15,0.00,,,0.00,Wunderground v.1.15,2013-05-23 15:20:00,
2013-05-23 09:22:00,73.1,22.7,29.74,NNW,342,0.0,4.0,15,0.00,,,0.00,Wunderground v.1.15,2013-05-23 15:22:00,
2013-05-23 09:23:00,73.2,24.3,29.74,North,350,5.0,6.0,16,0.00,,,0.00,Wunderground v.1.15,2013-05-23 15:23:00,
2013-05-23 09:24:00,73.4,22.9,29.74,NNE,22,3.0,6.0,15,0.00,,,0.00,Wunderground v.1.15,2013-05-23 15:24:00,
2013-05-23 09:25:00,73.6,23.1,29.74,North,9,5.0,6.0,15,0.00,,,0.00,Wunderground v.1.15,2013-05-23 15:25:00,
2013-05-23 09:28:00,73.9,21.7,29.74,North,5,5.0,6.0,14,0.00,,,0.00,Wunderground v.1.15,2013-05-23 15:28:00,
2013-05-23 09:29:00,74.1,21.8,29.74,North,5,3.0,6.0,14,0.00,,,0.00,Wunderground v.1.15,2013-05-23 15:29:00,
2013-05-23 09:30:00,74.3,22.0,29.74,North,9,4.0,5.0,14,0.00,,,0.00,Wunderground v.1.15,2013-05-23 15:30:00,
2013-05-23 09:33:00,74.5,22.1,29.73,North,9,3.0,5.0,14,0.00,,,0.00,Wunderground v.1.15,2013-05-23 15:33:00,
2013-05-23 09:34:00,74.6,22.2,29.73,NNW,341,3.0,5.0,14,0.00,,,0.00,Wunderground v.1.15,2013-05-23 15:34:00,
2013-05-23 09:36:00,74.8,22.4,29.73,NNW,340,1.0,5.0,14,0.00,,,0.00,Wunderground v.1.15,2013-05-23 15:36:00,
2013-05-23 09:38:00,75.0,22.5,29.73,NNW,340,2.0,5.0,14,0.00,,,0.00,Wunderground v.1.15,2013-05-23 15:38:00,
2013-05-23 09:40:00,75.3,21.0,29.73,NNW,341,1.0,3.0,13,0.00,,,0.00,Wunderground v.1.15,2013-05-23 15:40:00,
2013-05-23 09:42:00,75.7,21.3,29.73,NNW,341,2.0,3.0,13,0.00,,,0.00,Wunderground v.1.15,2013-05-23 15:42:00,
2013-05-23 09:43:00,75.8,21.4,29.73,NNW,340,2.0,4.0,13,0.00,,,0.00,Wunderground v.1.15,2013-05-23 15:43:00,
2013-05-23 09:44:00,75.9,21.5,29.73,NNW,341,2.0,4.0,13,0.00,,,0.00,Wunderground v.1.15,2013-05-23 15:44:00,
2013-05-23 09:45:00,75.9,21.5,29.73,NNW,340,0.0,4.0,13,0.00,,,0.00,Wunderground v.1.15,2013-05-23 15:45:00,
2013-05-23 09:46:00,76.0,21.6,29.73,NNW,340,0.0,4.0,13,0.00,,,0.00,Wunderground v.1.15,2013-05-23 15:46:00,
2013-05-23 09:47:00,76.1,21.6,29.73,NNW,340,0.0,4.0,13,0.00,,,0.00,Wunderground v.1.15,2013-05-23 15:47:00,
2013-05-23 09:48:00,76.3,21.8,29.73,NNW,340,1.0,4.0,13,0.00,,,0.00,Wunderground v.1.15,2013-05-23 15:48:00,
2013-05-23 09:49:00,76.3,21.8,29.73,NNW,341,0.0,4.0,13,0.00,,,0.00,Wunderground v.1.15,2013-05-23 15:49:00,
2013-05-23 09:50:00,76.4,21.9,29.73,NNW,341,1.0,1.0,13,0.00,,,0.00,Wunderground v.1.15,2013-05-23 15:50:00,
2013-05-23 09:51:00,76.6,22.0,29.72,ENE,73,2.0,3.0,13,0.00,,,0.00,Wunderground v.1.15,2013-05-23 15:51:00,
2013-05-23 09:53:00,76.9,22.3,29.73,East,86,1.0,5.0,13,0.00,,,0.00,Wunderground v.1.15,2013-05-23 15:53:00,
2013-05-23 09:54:00,77.1,20.5,29.73,East,85,1.0,5.0,12,0.00,,,0.00,Wunderground v.1.15,2013-05-23 15:54:00,
2013-05-23 09:55:00,77.3,20.7,29.72,East,85,3.0,5.0,12,0.00,,,0.00,Wunderground v.1.15,2013-05-23 15:55:00,
2013-05-23 09:58:00,77.8,21.1,29.72,ESE,120,3.0,5.0,12,0.00,,,0.00,Wunderground v.1.15,2013-05-23 15:58:00,
2013-05-23 09:59:00,77.9,19.1,29.73,ESE,119,2.0,5.0,11,0.00,,,0.00,Wunderground v.1.15,2013-05-23 15:59:00,
2013-05-23 10:00:00,77.9,19.1,29.72,ESE,119,2.0,3.0,11,0.00,,,0.00,Wunderground v.1.15,2013-05-23 16:00:00,
2013-05-23 10:03:00,78.0,19.2,29.72,ESE,119,1.0,3.0,11,0.00,,,0.00,Wunderground v.1.15,2013-05-23 16:03:00,
2013-05-23 10:04:00,78.0,19.2,29.72,ESE,119,0.0,3.0,11,0.00,,,0.00,Wunderground v.1.15,2013-05-23 16:04:00,
2013-05-23 10:06:00,78.4,19.5,29.72,SE,128,3.0,4.0,11,0.00,,,0.00,Wunderground v.1.15,2013-05-23 16:06:00,
2013-05-23 10:09:00,78.6,19.7,29.72,South,170,0.0,4.0,11,0.00,,,0.00,Wunderground v.1.15,2013-05-23 16:09:00,
2013-05-23 10:11:00,78.9,17.7,29.72,South,176,2.0,4.0,10,0.00,,,0.00,Wunderground v.1.15,2013-05-23 16:11:00,
2013-05-23 10:14:00,79.3,20.2,29.72,South,186,0.0,4.0,11,0.00,,,0.00,Wunderground v.1.15,2013-05-23 16:14:00,
2013-05-23 10:15:00,79.4,20.3,29.72,South,186,0.0,4.0,11,0.00,,,0.00,Wunderground v.1.15,2013-05-23 16:15:00,
2013-05-23 10:16:00,79.7,20.5,29.72,South,185,2.0,4.0,11,0.00,,,0.00,Wunderground v.1.15,2013-05-23 16:16:00,
2013-05-23 10:19:00,80.1,18.6,29.72,SSE,151,1.0,4.0,10,0.00,,,0.00,Wunderground v.1.15,2013-05-23 16:19:00,
2013-05-23 10:20:00,80.2,18.7,29.72,SSE,151,2.0,2.0,10,0.00,,,0.00,Wunderground v.1.15,2013-05-23 16:20:00,
2013-05-23 10:22:00,80.5,18.9,29.72,SSE,150,2.0,3.0,10,0.00,,,0.00,Wunderground v.1.15,2013-05-23 16:22:00,
2013-05-23 10:24:00,80.8,19.1,29.72,SSE,150,4.0,8.0,10,0.00,,,0.00,Wunderground v.1.15,2013-05-23 16:24:00,
2013-05-23 10:26:00,80.9,19.2,29.72,SSE,163,2.0,8.0,10,0.00,,,0.00,Wunderground v.1.15,2013-05-23 16:26:00,
2013-05-23 10:27:00,81.0,19.3,29.72,South,182,5.0,8.0,10,0.00,,,0.00,Wunderground v.1.15,2013-05-23 16:27:00,
2013-05-23 10:30:00,81.2,19.4,29.72,South,175,4.0,4.0,10,0.00,,,0.00,Wunderground v.1.15,2013-05-23 16:30:00,
2013-05-23 10:31:00,81.2,19.4,29.72,South,174,4.0,5.0,10,0.00,,,0.00,Wunderground v.1.15,2013-05-23 16:31:00,
2013-05-23 10:32:00,81.2,19.4,29.72,South,174,2.0,5.0,10,0.00,,,0.00,Wunderground v.1.15,2013-05-23 16:32:00,
2013-05-23 10:36:00,81.4,21.8,29.72,SW,227,3.0,8.0,11,0.00,,,0.00,Wunderground v.1.15,2013-05-23 16:36:00,
2013-05-23 10:37:00,81.5,19.6,29.72,SSW,199,1.0,8.0,10,0.00,,,0.00,Wunderground v.1.15,2013-05-23 16:37:00,
2013-05-23 10:38:00,81.5,19.6,29.72,SSW,199,1.0,8.0,10,0.00,,,0.00,Wunderground v.1.15,2013-05-23 16:38:00,
2013-05-23 10:41:00,81.8,19.9,29.71,SW,234,5.0,7.0,10,0.00,,,0.00,Wunderground v.1.15,2013-05-23 16:41:00,
2013-05-23 10:42:00,81.8,19.9,29.71,SW,235,6.0,7.0,10,0.00,,,0.00,Wunderground v.1.15,2013-05-23 16:42:00,
2013-05-23 10:43:00,81.9,19.9,29.71,South,177,4.0,7.0,10,0.00,,,0.00,Wunderground v.1.15,2013-05-23 16:43:00,
2013-05-23 10:47:00,82.2,22.4,29.71,SW,229,3.0,7.0,11,0.00,,,0.00,Wunderground v.1.15,2013-05-23 16:47:00,
2013-05-23 10:48:00,82.3,22.5,29.71,SW,229,3.0,7.0,11,0.00,,,0.00,Wunderground v.1.15,2013-05-23 16:48:00,
2013-05-23 10:52:00,82.9,20.7,29.71,WSW,244,3.0,7.0,10,0.00,,,0.00,Wunderground v.1.15,2013-05-23 16:52:00,
2013-05-23 10:53:00,83.0,20.8,29.71,West,276,4.0,7.0,10,0.00,,,0.00,Wunderground v.1.15,2013-05-23 16:53:00,
2013-05-23 10:54:00,83.0,20.8,29.71,West,276,5.0,7.0,10,0.00,,,0.00,Wunderground v.1.15,2013-05-23 16:54:00,
2013-05-23 10:58:00,83.1,20.9,29.71,WSW,243,3.0,7.0,10,0.00,,,0.00,Wunderground v.1.15,2013-05-23 16:58:00,
2013-05-23 10:59:00,83.3,21.0,29.71,South,176,5.0,7.0,10,0.00,,,0.00,Wunderground v.1.15,2013-05-23 16:59:00,
2013-05-23 11:01:00,83.5,18.7,29.71,South,176,3.0,5.0,9,0.00,,,0.00,Wunderground v.1.15,2013-05-23 17:01:00,
2013-05-23 11:03:00,83.6,18.8,29.71,South,174,2.0,5.0,9,0.00,,,0.00,Wunderground v.1.15,2013-05-23 17:03:00,
2013-05-23 11:04:00,83.7,21.3,29.71,SW,224,5.0,6.0,10,0.00,,,0.00,Wunderground v.1.15,2013-05-23 17:04:00,
2013-05-23 11:05:00,83.8,21.4,29.71,SW,236,4.0,7.0,10,0.00,,,0.00,Wunderground v.1.15,2013-05-23 17:05:00,
2013-05-23 11:07:00,83.9,21.5,29.71,SW,229,2.0,7.0,10,0.00,,,0.00,Wunderground v.1.15,2013-05-23 17:07:00,
2013-05-23 11:08:00,83.9,21.5,29.70,SW,230,0.0,7.0,10,0.00,,,0.00,Wunderground v.1.15,2013-05-23 17:08:00,
2013-05-23 11:09:00,83.8,21.4,29.71,SW,230,3.0,7.0,10,0.00,,,0.00,Wunderground v.1.15,2013-05-23 17:09:00,
2013-05-23 11:10:00,83.9,21.5,29.71,SW,230,1.0,3.0,10,0.00,,,0.00,Wunderground v.1.15,2013-05-23 17:10:00,
2013-05-23 11:12:00,84.0,21.5,29.70,SW,230,0.0,3.0,10,0.00,,,0.00,Wunderground v.1.15,2013-05-23 17:12:00,
2013-05-23 11:13:00,84.3,19.3,29.70,SW,230,3.0,5.0,9,0.00,,,0.00,Wunderground v.1.15,2013-05-23 17:13:00,
2013-05-23 11:14:00,84.5,21.9,29.70,SW,230,0.0,5.0,10,0.00,,,0.00,Wunderground v.1.15,2013-05-23 17:14:00,
2013-05-23 11:15:00,84.6,22.0,29.70,SW,230,1.0,5.0,10,0.00,,,0.00,Wunderground v.1.15,2013-05-23 17:15:00,
2013-05-23 11:16:00,84.7,19.6,29.70,SW,230,0.0,5.0,9,0.00,,,0.00,Wunderground v.1.15,2013-05-23 17:16:00,
2013-05-23 11:17:00,84.9,22.2,29.70,SW,230,6.0,7.0,10,0.00,,,0.00,Wunderground v.1.15,2013-05-23 17:17:00,
2013-05-23 11:19:00,85.0,22.3,29.70,SW,228,3.0,7.0,10,0.00,,,0.00,Wunderground v.1.15,2013-05-23 17:19:00,
2013-05-23 11:20:00,85.0,22.3,29.70,SW,228,3.0,7.0,10,0.00,,,0.00,Wunderground v.1.15,2013-05-23 17:20:00,
2013-05-23 11:21:00,85.0,19.8,29.70,SW,227,1.0,2.0,9,0.00,,,0.00,Wunderground v.1.15,2013-05-23 17:21:00,
2013-05-23 11:22:00,84.9,22.2,29.70,SW,227,4.0,4.0,10,0.00,,,0.00,Wunderground v.1.15,2013-05-23 17:22:00,
2013-05-23 11:24:00,85.2,20.0,29.70,SW,229,2.0,6.0,9,0.00,,,0.00,Wunderground v.1.15,2013-05-23 17:24:00,
2013-05-23 11:25:00,85.3,20.0,29.70,South,191,5.0,8.0,9,0.00,,,0.00,Wunderground v.1.15,2013-05-23 17:25:00,
2013-05-23 11:26:00,85.5,20.2,29.70,SW,229,3.0,8.0,9,0.00,,,0.00,Wunderground v.1.15,2013-05-23 17:26:00,
2013-05-23 11:27:00,85.6,20.3,29.70,SW,231,4.0,8.0,9,0.00,,,0.00,Wunderground v.1.15,2013-05-23 17:27:00,
2013-05-23 11:29:00,86.0,20.6,29.70,SW,219,6.0,8.0,9,0.00,,,0.00,Wunderground v.1.15,2013-05-23 17:29:00,
2013-05-23 11:30:00,86.0,20.6,29.70,SSW,209,6.0,8.0,9,0.00,,,0.00,Wunderground v.1.15,2013-05-23 17:30:00,
2013-05-23 11:31:00,86.2,20.7,29.70,SSW,202,0.0,4.0,9,0.00,,,0.00,Wunderground v.1.15,2013-05-23 17:31:00,
2013-05-23 11:32:00,86.2,20.7,29.70,SSW,202,2.0,4.0,9,0.00,,,0.00,Wunderground v.1.15,2013-05-23 17:32:00,
2013-05-23 11:35:00,86.2,20.7,29.70,SSW,211,6.0,6.0,9,0.00,,,0.00,Wunderground v.1.15,2013-05-23 17:35:00,
2013-05-23 11:37:00,86.3,23.3,29.70,SSW,212,1.0,7.0,10,0.00,,,0.00,Wunderground v.1.15,2013-05-23 17:37:00,
2013-05-23 11:40:00,86.3,18.0,29.70,SSW,194,0.0,3.0,8,0.00,,,0.00,Wunderground v.1.15,2013-05-23 17:40:00,
2013-05-23 11:41:00,86.3,18.0,29.70,SW,225,6.0,6.0,8,0.00,,,0.00,Wunderground v.1.15,2013-05-23 17:41:00,
2013-05-23 11:42:00,86.5,20.9,29.70,SSW,208,5.0,8.0,9,0.00,,,0.00,Wunderground v.1.15,2013-05-23 17:42:00,
2013-05-23 11:43:00,86.5,20.9,29.70,SSW,212,5.0,8.0,9,0.00,,,0.00,Wunderground v.1.15,2013-05-23 17:43:00,
2013-05-23 11:46:00,86.8,18.4,29.70,SSW,213,4.0,8.0,8,0.00,,,0.00,Wunderground v.1.15,2013-05-23 17:46:00,
2013-05-23 11:47:00,87.0,18.6,29.70,SSW,207,5.0,11.0,8,0.00,,,0.00,Wunderground v.1.15,2013-05-23 17:47:00,
2013-05-23 11:48:00,87.0,18.6,29.70,SW,229,4.0,11.0,8,0.00,,,0.00,Wunderground v.1.15,2013-05-23 17:48:00,
2013-05-23 11:51:00,87.1,18.6,29.70,WSW,239,4.0,7.0,8,0.00,,,0.00,Wunderground v.1.15,2013-05-23 17:51:00,
2013-05-23 11:53:00,87.2,18.7,29.70,WSW,239,1.0,7.0,8,0.00,,,0.00,Wunderground v.1.15,2013-05-23 17:53:00,
2013-05-23 11:56:00,87.2,18.7,29.69,SW,219,9.0,10.0,8,0.00,,,0.00,Wunderground v.1.15,2013-05-23 17:56:00,
2013-05-23 11:57:00,87.2,18.7,29.70,SW,224,4.0,10.0,8,0.00,,,0.00,Wunderground v.1.15,2013-05-23 17:57:00,
2013-05-23 11:58:00,87.3,18.8,29.69,SSW,206,7.0,10.0,8,0.00,,,0.00,Wunderground v.1.15,2013-05-23 17:58:00,
2013-05-23 11:59:00,87.4,18.9,29.69,SSW,205,8.0,10.0,8,0.00,,,0.00,Wunderground v.1.15,2013-05-23 17:59:00,
2013-05-23 12:01:00,87.6,19.0,29.69,South,175,6.0,9.0,8,0.00,,,0.00,Wunderground v.1.15,2013-05-23 18:01:00,
2013-05-23 12:03:00,87.9,19.2,29.69,SW,234,5.0,12.0,8,0.00,,,0.00,Wunderground v.1.15,2013-05-23 18:03:00,
2013-05-23 12:04:00,88.0,19.3,29.69,West,267,2.0,12.0,8,0.00,,,0.00,Wunderground v.1.15,2013-05-23 18:04:00,
2013-05-23 12:07:00,88.2,19.4,29.69,SSW,211,2.0,12.0,8,0.00,,,0.00,Wunderground v.1.15,2013-05-23 18:07:00,
2013-05-23 12:08:00,88.2,19.4,29.69,WSW,242,6.0,12.0,8,0.00,,,0.00,Wunderground v.1.15,2013-05-23 18:08:00,
2013-05-23 12:10:00,88.1,19.4,29.69,South,188,10.0,10.0,8,0.00,,,0.00,Wunderground v.1.15,2013-05-23 18:10:00,
2013-05-23 12:12:00,88.0,16.2,29.69,SSW,193,2.0,12.0,7,0.00,,,0.00,Wunderground v.1.15,2013-05-23 18:12:00,
2013-05-23 12:14:00,87.8,16.0,29.69,SSE,162,2.0,12.0,7,0.00,,,0.00,Wunderground v.1.15,2013-05-23 18:14:00,
2013-05-23 12:15:00,87.7,19.1,29.69,SSW,198,5.0,12.0,8,0.00,,,0.00,Wunderground v.1.15,2013-05-23 18:15:00,
2013-05-23 12:16:00,87.7,19.1,29.69,SSW,209,6.0,12.0,8,0.00,,,0.00,Wunderground v.1.15,2013-05-23 18:16:00,
2013-05-23 12:18:00,87.7,19.1,29.69,South,184,6.0,12.0,8,0.00,,,0.00,Wunderground v.1.15,2013-05-23 18:18:00,
2013-05-23 12:19:00,87.9,22.0,29.69,SSW,211,7.0,12.0,9,0.00,,,0.00,Wunderground v.1.15,2013-05-23 18:19:00,
2013-05-23 12:20:00,88.0,19.3,29.69,SW,221,6.0,6.0,8,0.00,,,0.00,Wunderground v.1.15,2013-05-23 18:20:00,
2013-05-23 12:21:00,88.1,19.4,29.69,SW,225,7.0,7.0,8,0.00,,,0.00,Wunderground v.1.15,2013-05-23 18:21:00,
2013-05-23 12:23:00,88.1,19.4,29.69,South,187,10.0,10.0,8,0.00,,,0.00,Wunderground v.1.15,2013-05-23 18:23:00,
2013-05-23 12:24:00,88.2,19.4,29.69,SSW,209,5.0,10.0,8,0.00,,,0.00,Wunderground v.1.15,2013-05-23 18:24:00,
2013-05-23 12:25:00,88.3,19.5,29.69,South,183,8.0,12.0,8,0.00,,,0.00,Wunderground v.1.15,2013-05-23 18:25:00,
2013-05-23 12:26:00,88.3,19.5,29.69,South,183,2.0,12.0,8,0.00,,,0.00,Wunderground v.1.15,2013-05-23 18:26:00,
2013-05-23 12:28:00,88.3,19.5,29.69,SW,216,9.0,12.0,8,0.00,,,0.00,Wunderground v.1.15,2013-05-23 18:28:00,
2013-05-23 12:29:00,88.4,19.6,29.69,SW,227,5.0,12.0,8,0.00,,,0.00,Wunderground v.1.15,2013-05-23 18:29:00,
2013-05-23 12:31:00,88.5,19.7,29.69,WNW,294,1.0,6.0,8,0.00,,,0.00,Wunderground v.1.15,2013-05-23 18:31:00,
2013-05-23 12:32:00,88.6,16.6,29.68,SSW,192,2.0,6.0,7,0.00,,,0.00,Wunderground v.1.15,2013-05-23 18:32:00,
2013-05-23 12:34:00,88.6,19.7,29.68,SSE,164,10.0,12.0,8,0.00,,,0.00,Wunderground v.1.15,2013-05-23 18:34:00,
2013-05-23 12:38:00,88.0,16.2,29.68,South,183,9.0,14.0,7,0.00,,,0.00,Wunderground v.1.15,2013-05-23 18:38:00,
2013-05-23 12:39:00,87.7,16.0,29.68,South,186,12.0,14.0,7,0.00,,,0.00,Wunderground v.1.15,2013-05-23 18:39:00,
2013-05-23 12:42:00,87.3,18.8,29.68,South,170,12.0,12.0,8,0.00,,,0.00,Wunderground v.1.15,2013-05-23 18:42:00,
2013-05-23 12:43:00,87.2,18.7,29.68,South,175,7.0,12.0,8,0.00,,,0.00,Wunderground v.1.15,2013-05-23 18:43:00,
2013-05-23 12:45:00,87.1,21.4,29.68,SSW,207,7.0,12.0,9,0.00,,,0.00,Wunderground v.1.15,2013-05-23 18:45:00,
2013-05-23 12:47:00,87.2,18.7,29.68,WSW,241,14.0,15.0,8,0.00,,,0.00,Wunderground v.1.15,2013-05-23 18:47:00,
2013-05-23 12:48:00,87.3,18.8,29.68,SW,231,7.0,15.0,8,0.00,,,0.00,Wunderground v.1.15,2013-05-23 18:48:00,
2013-05-23 12:51:00,87.9,16.1,29.68,SSE,168,11.0,11.0,7,0.00,,,0.00,Wunderground v.1.15,2013-05-23 18:51:00,
2013-05-23 12:52:00,88.0,16.2,29.68,SSE,167,4.0,13.0,7,0.00,,,0.00,Wunderground v.1.15,2013-05-23 18:52:00,
2013-05-23 12:53:00,88.0,16.2,29.68,SSW,194,12.0,13.0,7,0.00,,,0.00,Wunderground v.1.15,2013-05-23 18:53:00,
2013-05-23 12:54:00,88.1,16.3,29.68,SSW,194,11.0,17.0,7,0.00,,,0.00,Wunderground v.1.15,2013-05-23 18:54:00,
2013-05-23 12:56:00,88.4,16.5,29.68,South,177,6.0,17.0,7,0.00,,,0.00,Wunderground v.1.15,2013-05-23 18:56:00,
2013-05-23 12:57:00,88.6,13.1,29.68,South,190,5.0,17.0,6,0.00,,,0.00,Wunderground v.1.15,2013-05-23 18:57:00,
2013-05-23 12:58:00,88.6,16.6,29.68,SSW,193,12.0,17.0,7,0.00,,,0.00,Wunderground v.1.15,2013-05-23 18:58:00,
2013-05-23 12:59:00,88.8,16.8,29.68,South,180,9.0,17.0,7,0.00,,,0.00,Wunderground v.1.15,2013-05-23 18:59:00,
2013-05-23 13:02:00,89.1,17.0,29.67,SSW,212,7.0,13.0,7,0.00,,,0.00,Wunderground v.1.15,2013-05-23 19:02:00,
2013-05-23 13:03:00,89.2,17.1,29.67,SSW,200,12.0,14.0,7,0.00,,,0.00,Wunderground v.1.15,2013-05-23 19:03:00,
2013-05-23 13:04:00,89.4,17.2,29.67,SSW,209,7.0,17.0,7,0.00,,,0.00,Wunderground v.1.15,2013-05-23 19:04:00,
2013-05-23 13:06:00,89.6,17.4,29.67,SSW,194,7.0,17.0,7,0.00,,,0.00,Wunderground v.1.15,2013-05-23 19:06:00,
2013-05-23 13:07:00,89.8,17.5,29.67,SSE,165,13.0,20.0,7,0.00,,,0.00,Wunderground v.1.15,2013-05-23 19:07:00,
2013-05-23 13:08:00,89.9,14.0,29.67,SSW,193,7.0,20.0,6,0.00,,,0.00,Wunderground v.1.15,2013-05-23 19:08:00,
2013-05-23 13:09:00,89.9,17.6,29.67,South,172,5.0,20.0,7,0.00,,,0.00,Wunderground v.1.15,2013-05-23 19:09:00,
2013-05-23 13:12:00,89.8,17.5,29.67,WSW,242,7.0,17.0,7,0.00,,,0.00,Wunderground v.1.15,2013-05-23 19:12:00,
2013-05-23 13:13:00,89.9,17.6,29.67,SW,225,7.0,17.0,7,0.00,,,0.00,Wunderground v.1.15,2013-05-23 19:13:00,
2013-05-23 13:15:00,90.0,14.1,29.67,SSW,202,9.0,17.0,6,0.00,,,0.00,Wunderground v.1.15,2013-05-23 19:15:00,
2013-05-23 13:17:00,90.2,14.2,29.67,SSW,207,7.0,17.0,6,0.00,,,0.00,Wunderground v.1.15,2013-05-23 19:17:00,
2013-05-23 13:18:00,90.2,14.2,29.67,South,191,8.0,17.0,6,0.00,,,0.00,Wunderground v.1.15,2013-05-23 19:18:00,
2013-05-23 13:19:00,90.2,14.2,29.67,SW,227,10.0,17.0,6,0.00,,,0.00,Wunderground v.1.15,2013-05-23 19:19:00,
2013-05-23 13:21:00,90.3,17.9,29.67,SSW,213,9.0,15.0,7,0.00,,,0.00,Wunderground v.1.15,2013-05-23 19:21:00,
2013-05-23 13:22:00,90.4,17.9,29.67,SSW,209,9.0,15.0,7,0.00,,,0.00,Wunderground v.1.15,2013-05-23 19:22:00,
2013-05-23 13:23:00,90.5,14.5,29.67,South,190,18.0,18.0,6,0.00,,,0.00,Wunderground v.1.15,2013-05-23 19:23:00,
2013-05-23 13:24:00,90.5,14.5,29.67,SSW,193,13.0,18.0,6,0.00,,,0.00,Wunderground v.1.15,2013-05-23 19:24:00,
2013-05-23 13:26:00,90.4,17.9,29.67,SSW,200,3.0,18.0,7,0.00,,,0.00,Wunderground v.1.15,2013-05-23 19:26:00,
2013-05-23 13:27:00,90.4,14.4,29.67,SSW,198,9.0,18.0,6,0.00,,,0.00,Wunderground v.1.15,2013-05-23 19:27:00,
2013-05-23 13:28:00,90.4,14.4,29.67,South,190,10.0,18.0,6,0.00,,,0.00,Wunderground v.1.15,2013-05-23 19:28:00,
2013-05-23 13:29:00,90.5,14.5,29.67,SSW,200,9.0,18.0,6,0.00,,,0.00,Wunderground v.1.15,2013-05-23 19:29:00,
2013-05-23 13:31:00,90.3,14.3,29.66,SSW,209,10.0,15.0,6,0.00,,,0.00,Wunderground v.1.15,2013-05-23 19:31:00,
2013-05-23 13:33:00,90.1,14.2,29.66,South,184,7.0,15.0,6,0.00,,,0.00,Wunderground v.1.15,2013-05-23 19:33:00,
2013-05-23 13:34:00,89.9,17.6,29.66,SSW,198,3.0,15.0,7,0.00,,,0.00,Wunderground v.1.15,2013-05-23 19:34:00,
2013-05-23 13:36:00,89.9,17.6,29.66,SW,234,8.0,15.0,7,0.00,,,0.00,Wunderground v.1.15,2013-05-23 19:36:00,
2013-05-23 13:37:00,89.9,17.6,29.66,South,189,12.0,15.0,7,0.00,,,0.00,Wunderground v.1.15,2013-05-23 19:37:00,
2013-05-23 13:38:00,89.9,17.6,29.66,SSE,168,10.0,15.0,7,0.00,,,0.00,Wunderground v.1.15,2013-05-23 19:38:00,
2013-05-23 13:40:00,90.0,17.7,29.66,SW,218,9.0,9.0,7,0.00,,,0.00,Wunderground v.1.15,2013-05-23 19:40:00,
2013-05-23 13:42:00,90.3,17.9,29.66,WSW,244,2.0,9.0,7,0.00,,,0.00,Wunderground v.1.15,2013-05-23 19:42:00,
2013-05-23 13:43:00,90.4,17.9,29.66,SW,229,14.0,14.0,7,0.00,,,0.00,Wunderground v.1.15,2013-05-23 19:43:00,
2013-05-23 13:45:00,90.6,18.1,29.65,South,177,12.0,14.0,7,0.00,,,0.00,Wunderground v.1.15,2013-05-23 19:45:00,
2013-05-23 13:47:00,90.7,18.2,29.65,SW,229,9.0,17.0,7,0.00,,,0.00,Wunderground v.1.15,2013-05-23 19:47:00,
2013-05-23 13:48:00,90.8,18.2,29.65,WSW,243,6.0,17.0,7,0.00,,,0.00,Wunderground v.1.15,2013-05-23 19:48:00,
2013-05-23 13:49:00,90.9,18.3,29.65,West,263,8.0,17.0,7,0.00,,,0.00,Wunderground v.1.15,2013-05-23 19:49:00,
2013-05-23 13:50:00,91.0,18.4,29.65,South,183,8.0,9.0,7,0.00,,,0.00,Wunderground v.1.15,2013-05-23 19:50:00,
2013-05-23 13:52:00,91.1,18.5,29.65,SW,227,12.0,17.0,7,0.00,,,0.00,Wunderground v.1.15,2013-05-23 19:52:00,
2013-05-23 13:54:00,91.2,18.5,29.65,WSW,239,10.0,17.0,7,0.00,,,0.00,Wunderground v.1.15,2013-05-23 19:54:00,
2013-05-23 13:55:00,91.2,18.5,29.65,SSW,205,10.0,17.0,7,0.00,,,0.00,Wunderground v.1.15,2013-05-23 19:55:00,
2013-05-23 13:58:00,91.2,18.5,29.65,WSW,239,7.0,17.0,7,0.00,,,0.00,Wunderground v.1.15,2013-05-23 19:58:00,
2013-05-23 13:59:00,91.2,18.5,29.65,SW,215,11.0,17.0,7,0.00,,,0.00,Wunderground v.1.15,2013-05-23 19:59:00,
2013-05-23 14:00:00,91.2,18.5,29.65,South,188,13.0,13.0,7,0.00,,,0.00,Wunderground v.1.15,2013-05-23 20:00:00,
2013-05-23 14:03:00,91.2,18.5,29.65,SSW,203,3.0,16.0,7,0.00,,,0.00,Wunderground v.1.15,2013-05-23 20:03:00,
2013-05-23 14:04:00,91.2,18.5,29.65,SSW,196,6.0,16.0,7,0.00,,,0.00,Wunderground v.1.15,2013-05-23 20:04:00,
2013-05-23 14:05:00,91.2,18.5,29.65,South,177,9.0,18.0,7,0.00,,,0.00,Wunderground v.1.15,2013-05-23 20:05:00,
2013-05-23 14:06:00,91.3,18.6,29.65,WSW,248,10.0,18.0,7,0.00,,,0.00,Wunderground v.1.15,2013-05-23 20:06:00,
2013-05-23 14:08:00,91.7,18.9,29.64,SW,223,7.0,18.0,7,0.00,,,0.00,Wunderground v.1.15,2013-05-23 20:08:00,
2013-05-23 14:09:00,91.8,19.0,29.64,SW,214,4.0,18.0,7,0.00,,,0.00,Wunderground v.1.15,2013-05-23 20:09:00,
2013-05-23 14:11:00,91.9,19.0,29.64,South,191,6.0,9.0,7,0.00,,,0.00,Wunderground v.1.15,2013-05-23 20:11:00,
2013-05-23 14:14:00,92.0,19.1,29.64,South,190,9.0,17.0,7,0.00,,,0.00,Wunderground v.1.15,2013-05-23 20:14:00,
2013-05-23 14:15:00,92.0,15.5,29.64,South,175,15.0,17.0,6,0.00,,,0.00,Wunderground v.1.15,2013-05-23 20:15:00,
2013-05-23 14:16:00,92.0,15.5,29.64,SSW,200,11.0,17.0,6,0.00,,,0.00,Wunderground v.1.15,2013-05-23 20:16:00,
2013-05-23 14:17:00,92.0,15.5,29.64,South,182,4.0,17.0,6,0.00,,,0.00,Wunderground v.1.15,2013-05-23 20:17:00,
2013-05-23 14:19:00,91.9,15.5,29.64,SSW,209,8.0,17.0,6,0.00,,,0.00,Wunderground v.1.15,2013-05-23 20:19:00,
2013-05-23 14:20:00,91.9,15.5,29.64,SSW,205,7.0,12.0,6,0.00,,,0.00,Wunderground v.1.15,2013-05-23 20:20:00,
2013-05-23 14:21:00,91.9,19.0,29.64,South,178,6.0,12.0,7,0.00,,,0.00,Wunderground v.1.15,2013-05-23 20:21:00,
2013-05-23 14:23:00,92.0,19.1,29.64,South,190,8.0,15.0,7,0.00,,,0.00,Wunderground v.1.15,2013-05-23 20:23:00,
2013-05-23 14:24:00,92.1,15.6,29.64,WSW,237,12.0,15.0,6,0.00,,,0.00,Wunderground v.1.15,2013-05-23 20:24:00,
2013-05-23 14:26:00,92.2,19.3,29.63,SW,232,9.0,18.0,7,0.00,,,0.00,Wunderground v.1.15,2013-05-23 20:26:00,
2013-05-23 14:27:00,92.2,19.3,29.63,WSW,238,12.0,18.0,7,0.00,,,0.00,Wunderground v.1.15,2013-05-23 20:27:00,
2013-05-23 14:28:00,92.3,19.3,29.63,SSW,192,7.0,18.0,7,0.00,,,0.00,Wunderground v.1.15,2013-05-23 20:28:00,
2013-05-23 14:31:00,92.4,15.8,29.63,South,191,17.0,20.0,6,0.00,,,0.00,Wunderground v.1.15,2013-05-23 20:31:00,
2013-05-23 14:32:00,92.4,15.8,29.63,South,190,17.0,20.0,6,0.00,,,0.00,Wunderground v.1.15,2013-05-23 20:32:00,
2013-05-23 14:34:00,92.3,11.6,29.63,South,190,15.0,23.0,5,0.00,,,0.00,Wunderground v.1.15,2013-05-23 20:34:00,
2013-05-23 14:36:00,92.1,15.6,29.63,SSW,193,8.0,23.0,6,0.00,,,0.00,Wunderground v.1.15,2013-05-23 20:36:00,
2013-05-23 14:37:00,92.1,15.6,29.63,SSW,198,13.0,23.0,6,0.00,,,0.00,Wunderground v.1.15,2013-05-23 20:37:00,
2013-05-23 14:39:00,92.1,15.6,29.62,SE,145,10.0,23.0,6,0.00,,,0.00,Wunderground v.1.15,2013-05-23 20:39:00,
2013-05-23 14:42:00,91.9,15.5,29.63,SW,223,15.0,16.0,6,0.00,,,0.00,Wunderground v.1.15,2013-05-23 20:42:00,
2013-05-23 14:43:00,91.9,15.5,29.62,SW,221,7.0,16.0,6,0.00,,,0.00,Wunderground v.1.15,2013-05-23 20:43:00,
2013-05-23 14:46:00,92.1,15.6,29.62,SW,224,10.0,16.0,6,0.00,,,0.00,Wunderground v.1.15,2013-05-23 20:46:00,
2013-05-23 14:47:00,92.3,15.7,29.62,SSW,203,7.0,16.0,6,0.00,,,0.00,Wunderground v.1.15,2013-05-23 20:47:00,
2013-05-23 14:48:00,92.5,15.9,29.62,WSW,257,7.0,16.0,6,0.00,,,0.00,Wunderground v.1.15,2013-05-23 20:48:00,
2013-05-23 14:51:00,92.8,16.1,29.62,SSE,167,12.0,15.0,6,0.00,,,0.00,Wunderground v.1.15,2013-05-23 20:51:00,
2013-05-23 14:52:00,92.7,11.9,29.62,South,186,12.0,15.0,5,0.00,,,0.00,Wunderground v.1.15,2013-05-23 20:52:00,
2013-05-23 14:53:00,92.6,11.8,29.62,South,188,11.0,15.0,5,0.00,,,0.00,Wunderground v.1.15,2013-05-23 20:53:00,
2013-05-23 14:57:00,92.3,15.7,29.61,SW,236,13.0,15.0,6,0.00,,,0.00,Wunderground v.1.15,2013-05-23 20:57:00,
2013-05-23 14:58:00,92.4,15.8,29.61,WSW,238,9.0,15.0,6,0.00,,,0.00,Wunderground v.1.15,2013-05-23 20:58:00,
2013-05-23 15:02:00,92.8,16.1,29.61,SSW,205,7.0,11.0,6,0.00,,,0.00,Wunderground v.1.15,2013-05-23 21:02:00,
2013-05-23 15:03:00,92.9,16.2,29.61,South,190,21.0,21.0,6,0.00,,,0.00,Wunderground v.1.15,2013-05-23 21:03:00,
2013-05-23 15:04:00,93.0,16.3,29.61,SSW,209,10.0,21.0,6,0.00,,,0.00,Wunderground v.1.15,2013-05-23 21:04:00,
2013-05-23 15:07:00,93.4,16.5,29.61,SSW,202,3.0,21.0,6,0.00,,,0.00,Wunderground v.1.15,2013-05-23 21:07:00,
2013-05-23 15:08:00,93.5,12.4,29.60,South,180,6.0,21.0,5,0.00,,,0.00,Wunderground v.1.15,2013-05-23 21:08:00,
2013-05-23 15:09:00,93.5,12.4,29.60,SW,224,5.0,21.0,5,0.00,,,0.00,Wunderground v.1.15,2013-05-23 21:09:00,
2013-05-23 15:12:00,93.6,12.5,29.60,South,188,18.0,18.0,5,0.00,,,0.00,Wunderground v.1.15,2013-05-23 21:12:00,
2013-05-23 15:14:00,93.5,12.4,29.60,SSE,167,18.0,24.0,5,0.00,,,0.00,Wunderground v.1.15,2013-05-23 21:14:00,
2013-05-23 15:18:00,92.9,12.0,29.60,SSE,167,10.0,24.0,5,0.00,,,0.00,Wunderground v.1.15,2013-05-23 21:18:00,
2013-05-23 15:19:00,92.8,11.9,29.60,SSW,193,8.0,24.0,5,0.00,,,0.00,Wunderground v.1.15,2013-05-23 21:19:00,
2013-05-23 15:23:00,92.7,16.0,29.59,SW,222,9.0,14.0,6,0.00,,,0.00,Wunderground v.1.15,2013-05-23 21:23:00,
2013-05-23 15:24:00,92.7,16.0,29.59,WSW,239,6.0,14.0,6,0.00,,,0.00,Wunderground v.1.15,2013-05-23 21:24:00,
2013-05-23 15:28:00,93.0,12.1,29.59,SSW,209,13.0,25.0,5,0.00,,,0.00,Wunderground v.1.15,2013-05-23 21:28:00,
2013-05-23 15:29:00,93.0,12.1,29.59,SSE,165,13.0,25.0,5,0.00,,,0.00,Wunderground v.1.15,2013-05-23 21:29:00,
2013-05-23 15:30:00,93.1,12.2,29.59,South,173,13.0,13.0,5,0.00,,,0.00,Wunderground v.1.15,2013-05-23 21:30:00,
2013-05-23 15:33:00,92.8,11.9,29.59,SW,218,9.0,15.0,5,0.00,,,0.00,Wunderground v.1.15,2013-05-23 21:33:00,
2013-05-23 15:35:00,92.8,11.9,29.59,SSE,149,13.0,15.0,5,0.00,,,0.00,Wunderground v.1.15,2013-05-23 21:35:00,
2013-05-23 15:37:00,92.8,11.9,29.59,SW,234,8.0,22.0,5,0.00,,,0.00,Wunderground v.1.15,2013-05-23 21:37:00,
2013-05-23 15:38:00,93.1,12.2,29.58,SSW,204,21.0,22.0,5,0.00,,,0.00,Wunderground v.1.15,2013-05-23 21:38:00,
2013-05-23 15:41:00,93.4,12.4,29.59,South,190,20.0,20.0,5,0.00,,,0.00,Wunderground v.1.15,2013-05-23 21:41:00,
2013-05-23 15:42:00,93.5,12.4,29.59,SSW,196,13.0,20.0,5,0.00,,,0.00,Wunderground v.1.15,2013-05-23 21:42:00,
2013-05-23 15:43:00,93.5,12.4,29.58,SSW,198,11.0,20.0,5,0.00,,,0.00,Wunderground v.1.15,2013-05-23 21:43:00,
2013-05-23 15:46:00,93.5,16.6,29.58,South,186,10.0,20.0,6,0.00,,,0.00,Wunderground v.1.15,2013-05-23 21:46:00,
2013-05-23 15:47:00,93.4,12.4,29.58,SSW,201,11.0,20.0,5,0.00,,,0.00,Wunderground v.1.15,2013-05-23 21:47:00,
2013-05-23 15:49:00,93.4,12.4,29.58,SSW,192,18.0,20.0,5,0.00,,,0.00,Wunderground v.1.15,2013-05-23 21:49:00,
2013-05-23 15:51:00,93.4,12.4,29.58,SSW,200,12.0,20.0,5,0.00,,,0.00,Wunderground v.1.15,2013-05-23 21:51:00,
2013-05-23 15:52:00,93.4,12.4,29.58,South,186,7.0,20.0,5,0.00,,,0.00,Wunderground v.1.15,2013-05-23 21:52:00,
2013-05-23 15:53:00,93.5,12.4,29.58,SW,223,11.0,20.0,5,0.00,,,0.00,Wunderground v.1.15,2013-05-23 21:53:00,
2013-05-23 15:56:00,93.8,12.6,29.58,SE,140,15.0,20.0,5,0.00,,,0.00,Wunderground v.1.15,2013-05-23 21:56:00,
2013-05-23 15:57:00,93.6,12.5,29.57,South,169,13.0,20.0,5,0.00,,,0.00,Wunderground v.1.15,2013-05-23 21:57:00,
2013-05-23 15:58:00,93.5,12.4,29.57,SW,227,11.0,20.0,5,0.00,,,0.00,Wunderground v.1.15,2013-05-23 21:58:00,
2013-05-23 16:01:00,93.3,12.3,29.57,WSW,252,12.0,16.0,5,0.00,,,0.00,Wunderground v.1.15,2013-05-23 22:01:00,
2013-05-23 16:02:00,93.3,12.3,29.57,SSW,198,9.0,16.0,5,0.00,,,0.00,Wunderground v.1.15,2013-05-23 22:02:00,
2013-05-23 16:03:00,93.4,12.4,29.57,South,184,15.0,17.0,5,0.00,,,0.00,Wunderground v.1.15,2013-05-23 22:03:00,
2013-05-23 16:06:00,93.7,12.6,29.57,SSW,202,6.0,21.0,5,0.00,,,0.00,Wunderground v.1.15,2013-05-23 22:06:00,
2013-05-23 16:07:00,93.8,12.6,29.57,SSW,205,7.0,21.0,5,0.00,,,0.00,Wunderground v.1.15,2013-05-23 22:07:00,
2013-05-23 16:08:00,93.8,16.8,29.57,SSW,199,9.0,21.0,6,0.00,,,0.00,Wunderground v.1.15,2013-05-23 22:08:00,
2013-05-23 16:11:00,94.0,12.8,29.57,SW,222,10.0,14.0,5,0.00,,,0.00,Wunderground v.1.15,2013-05-23 22:11:00,
2013-05-23 16:12:00,94.0,12.8,29.57,South,188,13.0,15.0,5,0.00,,,0.00,Wunderground v.1.15,2013-05-23 22:12:00,
2013-05-23 16:13:00,94.0,12.8,29.57,South,175,15.0,15.0,5,0.00,,,0.00,Wunderground v.1.15,2013-05-23 22:13:00,
2013-05-23 16:16:00,94.0,12.8,29.57,SSW,205,10.0,15.0,5,0.00,,,0.00,Wunderground v.1.15,2013-05-23 22:16:00,
2013-05-23 16:18:00,94.0,17.0,29.57,South,187,12.0,23.0,6,0.00,,,0.00,Wunderground v.1.15,2013-05-23 22:18:00,
2013-05-23 16:22:00,93.7,12.6,29.56,SSW,213,9.0,16.0,5,0.00,,,0.00,Wunderground v.1.15,2013-05-23 22:22:00,
2013-05-23 16:23:00,93.7,12.6,29.56,South,188,12.0,16.0,5,0.00,,,0.00,Wunderground v.1.15,2013-05-23 22:23:00,
2013-05-23 16:24:00,93.8,12.6,29.56,SW,221,11.0,16.0,5,0.00,,,0.00,Wunderground v.1.15,2013-05-23 22:24:00,
2013-05-23 16:27:00,94.1,12.9,29.56,South,172,17.0,17.0,5,0.00,,,0.00,Wunderground v.1.15,2013-05-23 22:27:00,
2013-05-23 16:28:00,94.1,12.9,29.56,South,186,7.0,17.0,5,0.00,,,0.00,Wunderground v.1.15,2013-05-23 22:28:00,
2013-05-23 16:29:00,94.2,12.9,29.56,South,187,7.0,17.0,5,0.00,,,0.00,Wunderground v.1.15,2013-05-23 22:29:00,
2013-05-23 16:30:00,93.9,7.7,29.56,SSE,152,7.0,11.0,4,0.00,,,0.00,Wunderground v.1.15,2013-05-23 22:30:00,
2013-05-23 16:33:00,93.1,7.2,29.55,SE,144,14.0,18.0,4,0.00,,,0.00,Wunderground v.1.15,2013-05-23 22:33:00,
2013-05-23 16:34:00,92.9,7.0,29.55,South,178,15.0,18.0,4,0.00,,,0.00,Wunderground v.1.15,2013-05-23 22:34:00,
2013-05-23 16:37:00,92.2,11.5,29.55,South,186,6.0,21.0,5,0.00,,,0.00,Wunderground v.1.15,2013-05-23 22:37:00,
2013-05-23 16:38:00,92.0,11.4,29.55,South,178,14.0,21.0,5,0.00,,,0.00,Wunderground v.1.15,2013-05-23 22:38:00,
2013-05-23 16:39:00,91.8,11.2,29.55,South,170,12.0,21.0,5,0.00,,,0.00,Wunderground v.1.15,2013-05-23 22:39:00,
2013-05-23 16:42:00,91.3,18.6,29.55,SSW,199,18.0,18.0,7,0.00,,,0.00,Wunderground v.1.15,2013-05-23 22:42:00,
2013-05-23 16:43:00,91.3,18.6,29.55,South,182,16.0,18.0,7,0.00,,,0.00,Wunderground v.1.15,2013-05-23 22:43:00,
2013-05-23 16:47:00,91.7,15.3,29.55,SSW,202,15.0,18.0,6,0.00,,,0.00,Wunderground v.1.15,2013-05-23 22:47:00,
2013-05-23 16:48:00,91.8,15.4,29.55,South,175,8.0,18.0,6,0.00,,,0.00,Wunderground v.1.15,2013-05-23 22:48:00,
2013-05-23 16:49:00,91.9,15.5,29.56,South,180,20.0,20.0,6,0.00,,,0.00,Wunderground v.1.15,2013-05-23 22:49:00,
2013-05-23 16:51:00,92.1,15.6,29.55,South,170,11.0,15.0,6,0.00,,,0.00,Wunderground v.1.15,2013-05-23 22:51:00,
2013-05-23 16:53:00,92.1,15.6,29.55,South,170,21.0,21.0,6,0.00,,,0.00,Wunderground v.1.15,2013-05-23 22:53:00,
2013-05-23 16:54:00,92.0,15.5,29.55,South,188,27.0,27.0,6,0.00,,,0.00,Wunderground v.1.15,2013-05-23 22:54:00,
2013-05-23 16:57:00,91.9,15.5,29.55,South,181,29.0,29.0,6,0.00,,,0.00,Wunderground v.1.15,2013-05-23 22:57:00,
2013-05-23 16:58:00,91.9,15.5,29.55,SSW,206,17.0,29.0,6,0.00,,,0.00,Wunderground v.1.15,2013-05-23 22:58:00,
2013-05-23 17:01:00,92.0,11.4,29.55,South,173,35.0,35.0,5,0.00,,,0.00,Wunderground v.1.15,2013-05-23 23:01:00,
2013-05-23 17:02:00,91.9,11.3,29.56,South,171,19.0,35.0,5,0.00,,,0.00,Wunderground v.1.15,2013-05-23 23:02:00,
2013-05-23 17:03:00,91.7,11.2,29.56,South,173,17.0,35.0,5,0.00,,,0.00,Wunderground v.1.15,2013-05-23 23:03:00,
2013-05-23 17:04:00,91.6,15.2,29.55,SSW,195,20.0,35.0,6,0.00,,,0.00,Wunderground v.1.15,2013-05-23 23:04:00,
2013-05-23 17:07:00,91.2,15.0,29.56,SSE,168,13.0,35.0,6,0.00,,,0.00,Wunderground v.1.15,2013-05-23 23:07:00,
2013-05-23 17:08:00,91.2,15.0,29.56,SSE,147,12.0,35.0,6,0.00,,,0.00,Wunderground v.1.15,2013-05-23 23:08:00,
2013-05-23 17:11:00,91.0,14.8,29.55,SSW,192,11.0,17.0,6,0.00,,,0.00,Wunderground v.1.15,2013-05-23 23:11:00,
2013-05-23 17:13:00,90.9,14.7,29.55,SSW,205,9.0,17.0,6,0.00,,,0.00,Wunderground v.1.15,2013-05-23 23:13:00,
2013-05-23 17:16:00,90.9,14.7,29.55,SSW,196,9.0,17.0,6,0.00,,,0.00,Wunderground v.1.15,2013-05-23 23:16:00,
2013-05-23 17:19:00,90.8,14.7,29.55,SSE,167,5.0,17.0,6,0.00,,,0.00,Wunderground v.1.15,2013-05-23 23:19:00,
2013-05-23 17:21:00,90.8,14.7,29.55,SSE,166,9.0,9.0,6,0.00,,,0.00,Wunderground v.1.15,2013-05-23 23:21:00,
2013-05-23 17:22:00,90.8,14.7,29.55,SSE,151,8.0,9.0,6,0.00,,,0.00,Wunderground v.1.15,2013-05-23 23:22:00,
2013-05-23 17:24:00,90.9,14.7,29.55,SSE,164,10.0,15.0,6,0.00,,,0.00,Wunderground v.1.15,2013-05-23 23:24:00,
2013-05-23 17:27:00,91.0,14.8,29.55,SE,146,11.0,15.0,6,0.00,,,0.00,Wunderground v.1.15,2013-05-23 23:27:00,
2013-05-23 17:28:00,91.0,14.8,29.54,SSE,154,15.0,18.0,6,0.00,,,0.00,Wunderground v.1.15,2013-05-23 23:28:00,
2013-05-23 17:29:00,90.9,14.7,29.54,South,176,16.0,18.0,6,0.00,,,0.00,Wunderground v.1.15,2013-05-23 23:29:00,
2013-05-23 17:30:00,90.9,14.7,29.54,South,175,13.0,18.0,6,0.00,,,0.00,Wunderground v.1.15,2013-05-23 23:30:00,
2013-05-23 17:31:00,90.8,14.7,29.54,South,169,8.0,11.0,6,0.00,,,0.00,Wunderground v.1.15,2013-05-23 23:31:00,
2013-05-23 17:32:00,90.8,14.7,29.54,South,179,10.0,11.0,6,0.00,,,0.00,Wunderground v.1.15,2013-05-23 23:32:00,
2013-05-23 17:33:00,90.9,14.7,29.54,SSW,196,8.0,14.0,6,0.00,,,0.00,Wunderground v.1.15,2013-05-23 23:33:00,
2013-05-23 17:34:00,91.0,14.8,29.54,South,190,12.0,14.0,6,0.00,,,0.00,Wunderground v.1.15,2013-05-23 23:34:00,
2013-05-23 17:35:00,91.0,14.8,29.54,South,172,6.0,14.0,6,0.00,,,0.00,Wunderground v.1.15,2013-05-23 23:35:00,
2013-05-23 17:49:00,91.8,12.0,29.53,SE,146,10.0,21.0,5,0.00,,,0.00,weatherlink.com 1.10,2013-05-23 23:49:00,
2013-05-23 18:04:00,90.3,10.0,29.53,South,182,13.0,22.0,5,0.00,,,0.00,weatherlink.com 1.10,2013-05-24 00:04:00,
2013-05-23 19:06:00,88.1,13.0,29.54,SSE,165,11.0,20.0,6,0.00,,,0.00,weatherlink.com 1.10,2013-05-24 01:06:00,